Time,TemperatureF,DewpointF,PressureIn,WindDirection,WindDirectionDegrees,WindSpeedMPH,WindSpeedGustMPH,Humidity,HourlyPrecipIn,Conditions,Clouds,dailyrainin,SoftwareType,DateUTC
2013-08-13 00:01:00,65.3,63.8,29.76,East,79,0.0,11.0,95,0.30,,---,1.43,VWS V14.00,2013-08-13 04:01:00,
2013-08-13 00:06:00,65.3,63.8,29.76,East,79,0.0,0.0,95,0.25,,---,0.00,VWS V14.00,2013-08-13 04:06:00,
2013-08-13 00:11:00,65.3,63.8,29.76,East,79,0.0,0.0,95,0.25,,---,0.00,VWS V14.00,2013-08-13 04:11:00,
2013-08-13 00:16:00,65.3,63.8,29.76,East,79,0.0,0.0,95,0.25,,---,0.00,VWS V14.00,2013-08-13 04:16:00,
2013-08-13 00:21:00,65.3,63.8,29.76,East,79,0.0,0.0,95,0.25,,---,0.00,VWS V14.00,2013-08-13 04:21:00,
2013-08-13 00:22:00,65.3,63.8,29.76,East,79,0.0,0.0,95,0.25,,---,0.00,VWS V14.00,2013-08-13 04:22:00,
2013-08-13 00:26:00,65.3,63.8,29.76,East,79,0.0,0.0,95,0.25,,---,0.00,VWS V14.00,2013-08-13 04:26:00,
2013-08-13 00:27:00,65.3,63.8,29.76,East,79,0.0,0.0,95,0.25,,---,0.00,VWS V14.00,2013-08-13 04:27:00,
2013-08-13 00:31:00,65.3,63.8,29.76,NE,41,0.0,0.0,95,0.25,,---,0.00,VWS V14.00,2013-08-13 04:31:00,
2013-08-13 00:32:00,65.3,63.8,29.76,NE,41,0.0,0.0,95,0.25,,---,0.00,VWS V14.00,2013-08-13 04:32:00,
2013-08-13 00:36:00,65.3,63.8,29.76,NE,41,0.0,0.0,95,0.25,,---,0.00,VWS V14.00,2013-08-13 04:36:00,
2013-08-13 00:37:00,65.3,63.8,29.76,NE,41,0.0,0.0,95,0.25,,---,0.00,VWS V14.00,2013-08-13 04:37:00,
2013-08-13 00:41:00,65.3,63.8,29.76,NW,304,0.0,0.0,95,0.25,,---,0.00,VWS V14.00,2013-08-13 04:41:00,
2013-08-13 00:42:00,65.3,63.8,29.76,WNW,299,0.0,0.0,95,0.25,,---,0.00,VWS V14.00,2013-08-13 04:42:00,
2013-08-13 00:43:00,65.3,63.8,29.76,NW,304,0.0,0.0,95,0.25,,---,0.00,VWS V14.00,2013-08-13 04:43:00,
2013-08-13 00:47:00,65.2,63.7,29.76,WNW,302,0.0,0.0,95,0.25,,---,0.00,VWS V14.00,2013-08-13 04:47:00,
2013-08-13 00:48:00,65.2,63.7,29.76,WNW,302,0.0,0.0,95,0.25,,---,0.00,VWS V14.00,2013-08-13 04:48:00,
2013-08-13 00:52:00,65.2,63.7,29.76,WNW,302,0.0,0.0,95,0.25,,---,0.00,VWS V14.00,2013-08-13 04:52:00,
2013-08-13 00:53:00,65.2,63.7,29.76,WNW,302,0.0,0.0,95,0.25,,---,0.00,VWS V14.00,2013-08-13 04:53:00,
2013-08-13 00:57:00,65.2,63.7,29.76,WNW,302,0.0,0.0,95,0.25,,---,0.00,VWS V14.00,2013-08-13 04:57:00,
2013-08-13 00:58:00,65.2,63.7,29.76,WNW,302,0.0,0.0,95,0.25,,---,0.00,VWS V14.00,2013-08-13 04:58:00,
2013-08-13 01:02:00,65.2,63.7,29.75,WNW,302,0.0,0.0,95,0.00,,---,0.00,VWS V14.00,2013-08-13 05:02:00,
2013-08-13 01:03:00,65.2,63.7,29.75,WNW,302,0.0,0.0,95,0.00,,---,0.00,VWS V14.00,2013-08-13 05:03:00,
2013-08-13 01:04:00,65.0,63.5,29.75,WNW,302,0.0,0.0,95,0.00,,---,0.00,VWS V14.00,2013-08-13 05:04:00,
2013-08-13 01:07:00,65.0,63.5,29.75,WNW,301,0.0,0.0,95,0.00,,---,0.00,VWS V14.00,2013-08-13 05:07:00,
2013-08-13 01:08:00,65.0,63.5,29.75,WNW,301,0.0,0.0,95,0.00,,---,0.00,VWS V14.00,2013-08-13 05:08:00,
2013-08-13 01:09:00,65.0,63.5,29.75,WNW,301,0.0,0.0,95,0.00,,---,0.00,VWS V14.00,2013-08-13 05:09:00,
2013-08-13 01:12:00,64.8,63.3,29.75,WNW,301,0.0,0.0,95,0.00,,---,0.00,VWS V14.00,2013-08-13 05:12:00,
2013-08-13 01:13:00,64.8,63.3,29.75,WNW,301,0.0,0.0,95,0.00,,---,0.00,VWS V14.00,2013-08-13 05:13:00,
2013-08-13 01:14:00,64.8,63.3,29.75,WNW,301,0.0,0.0,95,0.00,,---,0.00,VWS V14.00,2013-08-13 05:14:00,
2013-08-13 01:17:00,64.8,63.3,29.75,WNW,301,0.0,0.0,95,0.00,,---,0.00,VWS V14.00,2013-08-13 05:17:00,
2013-08-13 01:18:00,64.7,63.2,29.75,West,278,0.0,0.0,95,0.00,,---,0.00,VWS V14.00,2013-08-13 05:18:00,
2013-08-13 01:19:00,64.7,63.2,29.75,West,278,0.0,0.0,95,0.00,,---,0.00,VWS V14.00,2013-08-13 05:19:00,
2013-08-13 01:22:00,64.7,63.2,29.75,WNW,292,0.0,0.0,95,0.00,,---,0.00,VWS V14.00,2013-08-13 05:22:00,
2013-08-13 01:23:00,64.7,63.2,29.75,WNW,292,0.0,0.0,95,0.00,,---,0.00,VWS V14.00,2013-08-13 05:23:00,
2013-08-13 01:24:00,64.7,63.2,29.75,WNW,292,0.0,0.0,95,0.00,,---,0.00,VWS V14.00,2013-08-13 05:24:00,
2013-08-13 01:28:00,64.7,63.5,29.75,WNW,282,0.0,0.0,96,0.00,,---,0.00,VWS V14.00,2013-08-13 05:28:00,
2013-08-13 01:29:00,64.7,63.5,29.75,WNW,291,0.0,0.0,96,0.00,,---,0.00,VWS V14.00,2013-08-13 05:29:00,
2013-08-13 01:33:00,64.7,63.5,29.74,West,275,1.0,6.0,96,0.00,,---,0.00,VWS V14.00,2013-08-13 05:33:00,
2013-08-13 01:34:00,64.8,63.6,29.74,WNW,287,2.0,7.0,96,0.00,,---,0.00,VWS V14.00,2013-08-13 05:34:00,
2013-08-13 01:38:00,64.8,63.6,29.74,WNW,291,0.0,7.0,96,0.01,,---,0.01,VWS V14.00,2013-08-13 05:38:00,
2013-08-13 01:39:00,64.8,63.6,29.74,WNW,284,2.0,7.0,96,0.01,,---,0.01,VWS V14.00,2013-08-13 05:39:00,
2013-08-13 01:43:00,64.8,63.6,29.74,West,267,0.0,7.0,96,0.01,,---,0.01,VWS V14.00,2013-08-13 05:43:00,
2013-08-13 01:44:00,65.0,63.8,29.74,WNW,291,6.0,8.0,96,0.01,,---,0.01,VWS V14.00,2013-08-13 05:44:00,
2013-08-13 01:48:00,65.0,63.8,29.74,WNW,295,0.0,8.0,96,0.01,,---,0.01,VWS V14.00,2013-08-13 05:48:00,
2013-08-13 01:49:00,65.0,63.8,29.74,WNW,298,2.0,8.0,96,0.01,,---,0.01,VWS V14.00,2013-08-13 05:49:00,
2013-08-13 01:50:00,65.0,63.8,29.74,WNW,292,0.0,8.0,96,0.01,,---,0.01,VWS V14.00,2013-08-13 05:50:00,
2013-08-13 01:53:00,65.0,63.8,29.74,West,270,0.0,9.0,96,0.01,,---,0.01,VWS V14.00,2013-08-13 05:53:00,
2013-08-13 01:54:00,65.0,63.8,29.74,WNW,295,0.0,9.0,96,0.01,,---,0.01,VWS V14.00,2013-08-13 05:54:00,
2013-08-13 01:55:00,65.0,63.8,29.74,WNW,294,0.0,9.0,96,0.01,,---,0.01,VWS V14.00,2013-08-13 05:55:00,
2013-08-13 01:58:00,65.0,63.8,29.74,NW,308,0.0,9.0,96,0.01,,---,0.01,VWS V14.00,2013-08-13 05:58:00,
2013-08-13 01:59:00,65.0,63.8,29.74,NNW,337,2.0,9.0,96,0.01,,---,0.01,VWS V14.00,2013-08-13 05:59:00,
2013-08-13 02:00:00,65.0,63.8,29.74,NW,304,0.0,9.0,96,0.01,,---,0.01,VWS V14.00,2013-08-13 06:00:00,
2013-08-13 02:03:00,65.0,63.8,29.74,NW,304,0.0,0.0,96,0.01,,---,0.01,VWS V14.00,2013-08-13 06:03:00,
2013-08-13 02:04:00,65.0,63.8,29.74,WNW,301,0.0,0.0,96,0.01,,---,0.01,VWS V14.00,2013-08-13 06:04:00,
2013-08-13 02:05:00,65.0,63.8,29.74,WNW,296,0.0,0.0,96,0.01,,---,0.01,VWS V14.00,2013-08-13 06:05:00,
2013-08-13 02:08:00,64.8,63.6,29.74,NW,306,0.0,9.0,96,0.01,,---,0.01,VWS V14.00,2013-08-13 06:08:00,
2013-08-13 02:09:00,64.8,63.6,29.74,WNW,296,6.0,9.0,96,0.01,,---,0.01,VWS V14.00,2013-08-13 06:09:00,
2013-08-13 02:10:00,64.8,63.6,29.74,WNW,301,8.0,9.0,96,0.01,,---,0.01,VWS V14.00,2013-08-13 06:10:00,
2013-08-13 02:11:00,64.8,63.6,29.74,NNW,335,0.0,9.0,96,0.01,,---,0.01,VWS V14.00,2013-08-13 06:11:00,
2013-08-13 02:14:00,64.8,63.6,29.74,NNW,329,2.0,13.0,96,0.01,,---,0.01,VWS V14.00,2013-08-13 06:14:00,
2013-08-13 02:15:00,64.8,63.6,29.74,WNW,288,8.0,13.0,96,0.01,,---,0.01,VWS V14.00,2013-08-13 06:15:00,
2013-08-13 02:16:00,64.8,63.6,29.74,NW,308,0.0,13.0,96,0.01,,---,0.01,VWS V14.00,2013-08-13 06:16:00,
2013-08-13 02:19:00,64.7,63.5,29.74,NW,311,6.0,13.0,96,0.01,,---,0.01,VWS V14.00,2013-08-13 06:19:00,
2013-08-13 02:20:00,64.7,63.5,29.74,WNW,289,0.0,13.0,96,0.01,,---,0.01,VWS V14.00,2013-08-13 06:20:00,
2013-08-13 02:21:00,64.7,63.5,29.74,WNW,289,0.0,13.0,96,0.01,,---,0.01,VWS V14.00,2013-08-13 06:21:00,
2013-08-13 02:24:00,64.7,63.5,29.74,NW,304,7.0,13.0,96,0.01,,---,0.01,VWS V14.00,2013-08-13 06:24:00,
2013-08-13 02:25:00,64.5,63.3,29.74,NW,320,4.0,13.0,96,0.01,,---,0.01,VWS V14.00,2013-08-13 06:25:00,
2013-08-13 02:26:00,64.5,63.3,29.74,NW,308,4.0,13.0,96,0.01,,---,0.01,VWS V14.00,2013-08-13 06:26:00,
2013-08-13 02:29:00,64.5,63.3,29.74,WNW,295,0.0,13.0,96,0.01,,---,0.01,VWS V14.00,2013-08-13 06:29:00,
2013-08-13 02:30:00,64.5,63.3,29.74,WNW,295,0.0,13.0,96,0.01,,---,0.01,VWS V14.00,2013-08-13 06:30:00,
2013-08-13 02:31:00,64.3,63.1,29.74,NW,322,0.0,13.0,96,0.01,,---,0.01,VWS V14.00,2013-08-13 06:31:00,
2013-08-13 02:34:00,64.3,63.1,29.74,NW,305,0.0,13.0,96,0.01,,---,0.01,VWS V14.00,2013-08-13 06:34:00,
2013-08-13 02:35:00,64.3,63.1,29.74,NW,304,0.0,13.0,96,0.01,,---,0.01,VWS V14.00,2013-08-13 06:35:00,
2013-08-13 02:36:00,64.2,63.0,29.74,NNW,329,2.0,13.0,96,0.01,,---,0.01,VWS V14.00,2013-08-13 06:36:00,
2013-08-13 02:37:00,64.2,63.0,29.74,NW,304,7.0,13.0,96,0.01,,---,0.01,VWS V14.00,2013-08-13 06:37:00,
2013-08-13 02:39:00,64.2,63.0,29.74,WNW,295,4.0,13.0,96,0.01,,---,0.01,VWS V14.00,2013-08-13 06:39:00,
2013-08-13 02:40:00,64.0,62.8,29.74,NW,309,0.0,13.0,96,0.01,,---,0.01,VWS V14.00,2013-08-13 06:40:00,
2013-08-13 02:41:00,64.0,62.8,29.74,NW,313,7.0,13.0,96,0.01,,---,0.01,VWS V14.00,2013-08-13 06:41:00,
2013-08-13 02:42:00,64.0,62.8,29.74,NW,309,0.0,13.0,96,0.01,,---,0.01,VWS V14.00,2013-08-13 06:42:00,
2013-08-13 02:45:00,63.9,62.7,29.74,NW,304,4.0,13.0,96,0.01,,---,0.01,VWS V14.00,2013-08-13 06:45:00,
2013-08-13 02:46:00,63.9,62.7,29.74,NW,326,4.0,13.0,96,0.01,,---,0.01,VWS V14.00,2013-08-13 06:46:00,
2013-08-13 02:47:00,63.9,62.7,29.74,NNW,339,0.0,13.0,96,0.01,,---,0.01,VWS V14.00,2013-08-13 06:47:00,
2013-08-13 02:50:00,63.9,62.7,29.74,NW,313,2.0,13.0,96,0.01,,---,0.01,VWS V14.00,2013-08-13 06:50:00,
2013-08-13 02:51:00,63.7,62.5,29.74,NNW,329,1.0,13.0,96,0.01,,---,0.01,VWS V14.00,2013-08-13 06:51:00,
2013-08-13 02:52:00,63.7,62.5,29.74,NW,305,6.0,13.0,96,0.01,,---,0.01,VWS V14.00,2013-08-13 06:52:00,
2013-08-13 02:55:00,63.5,62.3,29.74,NNW,332,1.0,13.0,96,0.01,,---,0.01,VWS V14.00,2013-08-13 06:55:00,
2013-08-13 02:56:00,63.5,62.3,29.74,NNW,332,2.0,13.0,96,0.01,,---,0.01,VWS V14.00,2013-08-13 06:56:00,
2013-08-13 02:57:00,63.5,62.3,29.74,NW,322,0.0,13.0,96,0.01,,---,0.01,VWS V14.00,2013-08-13 06:57:00,
2013-08-13 03:00:00,63.4,62.2,29.74,NNW,329,8.0,13.0,96,0.01,,---,0.01,VWS V14.00,2013-08-13 07:00:00,
2013-08-13 03:01:00,63.4,62.2,29.74,NNW,332,2.0,13.0,96,0.01,,---,0.01,VWS V14.00,2013-08-13 07:01:00,
2013-08-13 03:02:00,63.4,62.2,29.74,NNW,347,1.0,9.0,96,0.00,,---,0.01,VWS V14.00,2013-08-13 07:02:00,
2013-08-13 03:06:00,63.2,62.0,29.74,NW,313,0.0,9.0,96,0.00,,---,0.01,VWS V14.00,2013-08-13 07:06:00,
2013-08-13 03:07:00,63.2,62.0,29.74,NNW,343,0.0,9.0,96,0.00,,---,0.01,VWS V14.00,2013-08-13 07:07:00,
2013-08-13 03:11:00,63.2,62.0,29.74,NNW,340,0.0,9.0,96,0.00,,---,0.01,VWS V14.00,2013-08-13 07:11:00,
2013-08-13 03:12:00,63.1,61.9,29.74,NW,305,7.0,9.0,96,0.00,,---,0.01,VWS V14.00,2013-08-13 07:12:00,
2013-08-13 03:16:00,63.1,61.9,29.74,NW,319,0.0,11.0,96,0.00,,---,0.01,VWS V14.00,2013-08-13 07:16:00,
2013-08-13 03:17:00,63.1,61.9,29.74,NNW,336,4.0,11.0,96,0.00,,---,0.01,VWS V14.00,2013-08-13 07:17:00,
2013-08-13 03:18:00,62.9,61.8,29.74,North,0,0.0,11.0,96,0.00,,---,0.01,VWS V14.00,2013-08-13 07:18:00,
2013-08-13 03:21:00,62.9,61.8,29.74,NW,319,0.0,11.0,96,0.00,,---,0.01,VWS V14.00,2013-08-13 07:21:00,
2013-08-13 03:22:00,62.9,61.8,29.74,West,277,0.0,11.0,96,0.00,,---,0.01,VWS V14.00,2013-08-13 07:22:00,
2013-08-13 03:23:00,62.9,61.8,29.74,NW,323,8.0,11.0,96,0.00,,---,0.01,VWS V14.00,2013-08-13 07:23:00,
2013-08-13 03:26:00,62.7,61.5,29.74,NNW,330,4.0,11.0,96,0.00,,---,0.01,VWS V14.00,2013-08-13 07:26:00,
2013-08-13 03:27:00,62.7,61.5,29.74,NNW,329,7.0,11.0,96,0.00,,---,0.01,VWS V14.00,2013-08-13 07:27:00,
2013-08-13 03:28:00,62.7,61.5,29.74,NW,308,9.0,11.0,96,0.00,,---,0.01,VWS V14.00,2013-08-13 07:28:00,
2013-08-13 03:31:00,62.6,61.5,29.74,NNW,329,11.0,16.0,96,0.00,,---,0.01,VWS V14.00,2013-08-13 07:31:00,
2013-08-13 03:32:00,62.6,61.5,29.74,NNW,329,8.0,16.0,96,0.00,,---,0.01,VWS V14.00,2013-08-13 07:32:00,
2013-08-13 03:33:00,62.6,61.5,29.74,NNW,332,9.0,16.0,96,0.00,,---,0.01,VWS V14.00,2013-08-13 07:33:00,
2013-08-13 03:36:00,62.6,61.5,29.74,NW,313,0.0,16.0,96,0.00,,---,0.01,VWS V14.00,2013-08-13 07:36:00,
2013-08-13 03:37:00,62.4,61.2,29.74,NNW,332,2.0,16.0,96,0.00,,---,0.01,VWS V14.00,2013-08-13 07:37:00,
2013-08-13 03:38:00,62.4,61.2,29.74,North,350,0.0,16.0,96,0.00,,---,0.01,VWS V14.00,2013-08-13 07:38:00,
2013-08-13 03:41:00,62.4,61.2,29.74,NNW,329,15.0,16.0,96,0.00,,---,0.01,VWS V14.00,2013-08-13 07:41:00,
2013-08-13 03:42:00,62.4,61.2,29.74,North,0,6.0,16.0,96,0.00,,---,0.01,VWS V14.00,2013-08-13 07:42:00,
2013-08-13 03:43:00,62.3,61.2,29.74,NW,323,7.0,16.0,96,0.00,,---,0.01,VWS V14.00,2013-08-13 07:43:00,
2013-08-13 03:46:00,62.1,61.0,29.74,NNW,340,2.0,16.0,96,0.00,,---,0.01,VWS V14.00,2013-08-13 07:46:00,
2013-08-13 03:47:00,62.1,61.0,29.74,NNW,342,4.0,16.0,96,0.00,,---,0.01,VWS V14.00,2013-08-13 07:47:00,
2013-08-13 03:48:00,62.1,61.0,29.74,NW,322,4.0,16.0,96,0.00,,---,0.01,VWS V14.00,2013-08-13 07:48:00,
2013-08-13 03:52:00,62.0,60.8,29.74,NNW,347,0.0,16.0,96,0.00,,---,0.01,VWS V14.00,2013-08-13 07:52:00,
2013-08-13 03:53:00,62.0,60.8,29.74,NNW,332,4.0,16.0,96,0.00,,---,0.01,VWS V14.00,2013-08-13 07:53:00,
2013-08-13 03:57:00,61.8,60.7,29.74,NW,320,10.0,16.0,96,0.00,,---,0.01,VWS V14.00,2013-08-13 07:57:00,
2013-08-13 03:58:00,61.8,60.7,29.74,North,354,1.0,16.0,96,0.00,,---,0.01,VWS V14.00,2013-08-13 07:58:00,
2013-08-13 03:59:00,61.6,60.5,29.74,WNW,289,8.0,16.0,96,0.00,,---,0.01,VWS V14.00,2013-08-13 07:59:00,
2013-08-13 04:02:00,61.6,60.5,29.74,NNW,339,4.0,6.0,96,0.00,,---,0.01,VWS V14.00,2013-08-13 08:02:00,
2013-08-13 04:03:00,61.5,60.3,29.74,NW,309,10.0,16.0,96,0.00,,---,0.01,VWS V14.00,2013-08-13 08:03:00,
2013-08-13 04:04:00,61.5,60.1,29.74,NNW,344,7.0,17.0,95,0.00,,---,0.01,VWS V14.00,2013-08-13 08:04:00,
2013-08-13 04:07:00,61.3,59.9,29.74,NNW,329,6.0,17.0,95,0.00,,---,0.01,VWS V14.00,2013-08-13 08:07:00,
2013-08-13 04:08:00,61.3,59.9,29.74,NW,318,4.0,17.0,95,0.00,,---,0.01,VWS V14.00,2013-08-13 08:08:00,
2013-08-13 04:09:00,61.3,59.9,29.74,NNW,330,2.0,17.0,95,0.00,,---,0.01,VWS V14.00,2013-08-13 08:09:00,
2013-08-13 04:12:00,61.2,59.8,29.74,NNW,329,1.0,17.0,95,0.00,,---,0.01,VWS V14.00,2013-08-13 08:12:00,
2013-08-13 04:13:00,61.2,59.8,29.74,North,0,1.0,17.0,95,0.00,,---,0.01,VWS V14.00,2013-08-13 08:13:00,
2013-08-13 04:14:00,61.0,59.6,29.74,North,350,10.0,17.0,95,0.00,,---,0.01,VWS V14.00,2013-08-13 08:14:00,
2013-08-13 04:17:00,61.0,59.6,29.74,NW,308,1.0,17.0,95,0.00,,---,0.01,VWS V14.00,2013-08-13 08:17:00,
2013-08-13 04:18:00,60.9,59.5,29.74,NW,326,4.0,17.0,95,0.00,,---,0.01,VWS V14.00,2013-08-13 08:18:00,
2013-08-13 04:19:00,60.9,59.5,29.74,NW,304,1.0,17.0,95,0.00,,---,0.01,VWS V14.00,2013-08-13 08:19:00,
2013-08-13 04:22:00,60.7,59.3,29.74,NNW,329,6.0,17.0,95,0.00,,---,0.01,VWS V14.00,2013-08-13 08:22:00,
2013-08-13 04:23:00,60.7,59.3,29.74,NNW,329,8.0,17.0,95,0.00,,---,0.01,VWS V14.00,2013-08-13 08:23:00,
2013-08-13 04:24:00,60.7,59.3,29.74,North,356,0.0,17.0,95,0.00,,---,0.01,VWS V14.00,2013-08-13 08:24:00,
2013-08-13 04:25:00,60.7,59.3,29.74,WNW,301,6.0,17.0,95,0.00,,---,0.01,VWS V14.00,2013-08-13 08:25:00,
2013-08-13 04:27:00,60.5,59.1,29.74,NE,44,2.0,17.0,95,0.00,,---,0.01,VWS V14.00,2013-08-13 08:27:00,
2013-08-13 04:28:00,60.5,59.1,29.74,NNW,336,2.0,17.0,95,0.00,,---,0.01,VWS V14.00,2013-08-13 08:28:00,
2013-08-13 04:29:00,60.5,59.1,29.74,West,271,9.0,17.0,95,0.00,,---,0.01,VWS V14.00,2013-08-13 08:29:00,
2013-08-13 04:30:00,60.5,59.1,29.74,North,0,10.0,18.0,95,0.00,,---,0.01,VWS V14.00,2013-08-13 08:30:00,
2013-08-13 04:32:00,60.4,59.0,29.75,WNW,284,14.0,18.0,95,0.00,,---,0.01,VWS V14.00,2013-08-13 08:32:00,
2013-08-13 04:34:00,60.2,58.8,29.75,NW,316,6.0,18.0,95,0.00,,---,0.01,VWS V14.00,2013-08-13 08:34:00,
2013-08-13 04:35:00,60.2,58.8,29.75,NNW,329,0.0,18.0,95,0.00,,---,0.01,VWS V14.00,2013-08-13 08:35:00,
2013-08-13 04:37:00,60.2,58.8,29.75,WNW,296,8.0,18.0,95,0.00,,---,0.01,VWS V14.00,2013-08-13 08:37:00,
2013-08-13 04:39:00,60.1,58.7,29.75,North,350,13.0,18.0,95,0.00,,---,0.01,VWS V14.00,2013-08-13 08:39:00,
2013-08-13 04:40:00,60.1,58.7,29.75,NW,318,7.0,18.0,95,0.00,,---,0.01,VWS V14.00,2013-08-13 08:40:00,
2013-08-13 04:42:00,60.1,58.7,29.75,North,0,0.0,18.0,95,0.00,,---,0.01,VWS V14.00,2013-08-13 08:42:00,
2013-08-13 04:44:00,59.9,58.5,29.75,North,357,0.0,18.0,95,0.00,,---,0.01,VWS V14.00,2013-08-13 08:44:00,
2013-08-13 04:46:00,59.9,58.5,29.75,North,354,9.0,18.0,95,0.00,,---,0.01,VWS V14.00,2013-08-13 08:46:00,
2013-08-13 04:47:00,59.9,58.5,29.75,North,7,6.0,18.0,95,0.00,,---,0.01,VWS V14.00,2013-08-13 08:47:00,
2013-08-13 04:49:00,59.9,58.2,29.75,North,0,10.0,18.0,94,0.00,,---,0.01,VWS V14.00,2013-08-13 08:49:00,
2013-08-13 04:51:00,59.8,58.1,29.75,NW,319,8.0,18.0,94,0.00,,---,0.01,VWS V14.00,2013-08-13 08:51:00,
2013-08-13 04:52:00,59.8,58.1,29.75,NE,48,0.0,18.0,94,0.00,,---,0.01,VWS V14.00,2013-08-13 08:52:00,
2013-08-13 04:54:00,59.8,58.1,29.75,NW,313,0.0,18.0,94,0.00,,---,0.01,VWS V14.00,2013-08-13 08:54:00,
2013-08-13 04:55:00,59.8,58.1,29.75,North,349,0.0,18.0,94,0.00,,---,0.01,VWS V14.00,2013-08-13 08:55:00,
2013-08-13 04:56:00,59.8,58.1,29.75,North,0,0.0,18.0,94,0.00,,---,0.01,VWS V14.00,2013-08-13 08:56:00,
2013-08-13 04:58:00,59.6,57.9,29.75,NNW,339,0.0,18.0,94,0.00,,---,0.01,VWS V14.00,2013-08-13 08:58:00,
2013-08-13 04:59:00,59.6,57.9,29.75,NW,322,7.0,18.0,94,0.00,,---,0.01,VWS V14.00,2013-08-13 08:59:00,
2013-08-13 05:00:00,59.6,57.9,29.75,North,0,13.0,18.0,94,0.00,,---,0.01,VWS V14.00,2013-08-13 09:00:00,
2013-08-13 05:01:00,59.6,57.9,29.76,North,0,1.0,4.0,94,0.00,,---,0.01,VWS V14.00,2013-08-13 09:01:00,
2013-08-13 05:03:00,59.6,57.9,29.76,North,6,6.0,8.0,94,0.00,,---,0.01,VWS V14.00,2013-08-13 09:03:00,
2013-08-13 05:04:00,59.6,57.9,29.76,NNW,346,7.0,10.0,94,0.00,,---,0.01,VWS V14.00,2013-08-13 09:04:00,
2013-08-13 05:05:00,59.6,57.9,29.76,NNW,342,2.0,11.0,94,0.00,,---,0.01,VWS V14.00,2013-08-13 09:05:00,
2013-08-13 05:06:00,59.5,57.8,29.76,WNW,299,2.0,11.0,94,0.00,,---,0.01,VWS V14.00,2013-08-13 09:06:00,
2013-08-13 05:08:00,59.5,57.8,29.76,NW,322,9.0,11.0,94,0.00,,---,0.01,VWS V14.00,2013-08-13 09:08:00,
2013-08-13 05:09:00,59.5,57.8,29.76,NNW,329,7.0,11.0,94,0.00,,---,0.01,VWS V14.00,2013-08-13 09:09:00,
2013-08-13 05:10:00,59.5,57.8,29.76,NW,325,4.0,11.0,94,0.00,,---,0.01,VWS V14.00,2013-08-13 09:10:00,
2013-08-13 05:11:00,59.5,57.8,29.76,NW,306,7.0,11.0,94,0.00,,---,0.01,VWS V14.00,2013-08-13 09:11:00,
2013-08-13 05:13:00,59.5,57.8,29.76,NNW,339,0.0,11.0,94,0.00,,---,0.01,VWS V14.00,2013-08-13 09:13:00,
2013-08-13 05:14:00,59.3,57.6,29.76,NW,325,6.0,11.0,94,0.00,,---,0.01,VWS V14.00,2013-08-13 09:14:00,
2013-08-13 05:15:00,59.3,57.6,29.76,NW,316,2.0,11.0,94,0.00,,---,0.01,VWS V14.00,2013-08-13 09:15:00,
2013-08-13 05:16:00,59.3,57.6,29.76,NNW,340,6.0,11.0,94,0.00,,---,0.01,VWS V14.00,2013-08-13 09:16:00,
2013-08-13 05:18:00,59.3,57.6,29.76,ENE,65,6.0,13.0,94,0.00,,---,0.01,VWS V14.00,2013-08-13 09:18:00,
2013-08-13 05:20:00,59.3,57.6,29.76,NW,322,1.0,13.0,94,0.00,,---,0.01,VWS V14.00,2013-08-13 09:20:00,
2013-08-13 05:21:00,59.3,57.6,29.76,North,0,0.0,13.0,94,0.00,,---,0.01,VWS V14.00,2013-08-13 09:21:00,
2013-08-13 05:23:00,59.2,57.5,29.76,North,0,0.0,13.0,94,0.00,,---,0.01,VWS V14.00,2013-08-13 09:23:00,
2013-08-13 05:24:00,59.2,57.5,29.76,NW,325,4.0,13.0,94,0.00,,---,0.01,VWS V14.00,2013-08-13 09:24:00,
2013-08-13 05:25:00,59.2,57.5,29.76,NW,313,10.0,13.0,94,0.00,,---,0.01,VWS V14.00,2013-08-13 09:25:00,
2013-08-13 05:26:00,59.2,57.5,29.76,NNW,343,4.0,13.0,94,0.00,,---,0.01,VWS V14.00,2013-08-13 09:26:00,
2013-08-13 05:28:00,59.2,57.5,29.76,NW,319,8.0,13.0,94,0.00,,---,0.01,VWS V14.00,2013-08-13 09:28:00,
2013-08-13 05:30:00,59.2,57.5,29.76,NW,320,0.0,13.0,94,0.00,,---,0.01,VWS V14.00,2013-08-13 09:30:00,
2013-08-13 05:31:00,59.2,57.5,29.77,NW,315,4.0,13.0,94,0.00,,---,0.01,VWS V14.00,2013-08-13 09:31:00,
2013-08-13 05:33:00,59.2,57.5,29.77,NNW,337,11.0,17.0,94,0.00,,---,0.01,VWS V14.00,2013-08-13 09:33:00,
2013-08-13 05:35:00,59.0,57.3,29.77,NW,325,1.0,17.0,94,0.00,,---,0.01,VWS V14.00,2013-08-13 09:35:00,
2013-08-13 05:36:00,59.0,57.3,29.77,NW,326,6.0,17.0,94,0.00,,---,0.01,VWS V14.00,2013-08-13 09:36:00,
2013-08-13 05:38:00,59.0,57.3,29.77,North,0,4.0,17.0,94,0.00,,---,0.01,VWS V14.00,2013-08-13 09:38:00,
2013-08-13 05:40:00,59.0,57.3,29.77,NNW,344,0.0,17.0,94,0.00,,---,0.01,VWS V14.00,2013-08-13 09:40:00,
2013-08-13 05:42:00,59.0,57.3,29.77,North,0,2.0,17.0,94,0.00,,---,0.01,VWS V14.00,2013-08-13 09:42:00,
2013-08-13 05:43:00,59.0,57.3,29.77,North,0,0.0,17.0,94,0.00,,---,0.01,VWS V14.00,2013-08-13 09:43:00,
2013-08-13 05:45:00,59.0,57.3,29.77,WNW,288,7.0,17.0,94,0.00,,---,0.01,VWS V14.00,2013-08-13 09:45:00,
2013-08-13 05:46:00,59.0,57.3,29.77,NNW,330,7.0,17.0,94,0.00,,---,0.01,VWS V14.00,2013-08-13 09:46:00,
2013-08-13 05:47:00,59.0,57.3,29.77,NNW,329,2.0,17.0,94,0.00,,---,0.01,VWS V14.00,2013-08-13 09:47:00,
2013-08-13 05:49:00,59.0,57.3,29.77,NW,312,6.0,17.0,94,0.00,,---,0.01,VWS V14.00,2013-08-13 09:49:00,
2013-08-13 05:50:00,59.0,57.3,29.77,North,0,2.0,17.0,94,0.00,,---,0.01,VWS V14.00,2013-08-13 09:50:00,
2013-08-13 05:51:00,59.0,57.3,29.77,North,0,8.0,17.0,94,0.00,,---,0.01,VWS V14.00,2013-08-13 09:51:00,
2013-08-13 05:52:00,59.0,57.3,29.77,North,0,0.0,17.0,94,0.00,,---,0.01,VWS V14.00,2013-08-13 09:52:00,
2013-08-13 05:54:00,59.0,57.3,29.77,North,0,8.0,17.0,94,0.00,,---,0.01,VWS V14.00,2013-08-13 09:54:00,
2013-08-13 05:56:00,59.0,57.3,29.77,North,356,8.0,17.0,94,0.00,,---,0.01,VWS V14.00,2013-08-13 09:56:00,
2013-08-13 05:57:00,59.2,57.5,29.77,North,353,0.0,17.0,94,0.00,,---,0.01,VWS V14.00,2013-08-13 09:57:00,
2013-08-13 05:59:00,59.2,57.5,29.77,NNE,13,10.0,17.0,94,0.00,,---,0.01,VWS V14.00,2013-08-13 09:59:00,
2013-08-13 06:01:00,59.2,57.5,29.78,North,357,6.0,6.0,94,0.00,,---,0.01,VWS V14.00,2013-08-13 10:01:00,
2013-08-13 06:02:00,59.2,57.5,29.78,NNW,332,0.0,8.0,94,0.00,,---,0.01,VWS V14.00,2013-08-13 10:02:00,
2013-08-13 06:04:00,59.2,57.5,29.78,NNW,330,2.0,8.0,94,0.00,,---,0.01,VWS V14.00,2013-08-13 10:04:00,
2013-08-13 06:06:00,59.2,57.5,29.78,North,356,0.0,13.0,94,0.00,,---,0.01,VWS V14.00,2013-08-13 10:06:00,
2013-08-13 06:07:00,59.2,57.5,29.78,NW,319,0.0,13.0,94,0.00,,---,0.01,VWS V14.00,2013-08-13 10:07:00,
2013-08-13 06:09:00,59.2,57.5,29.78,NNW,330,4.0,16.0,94,0.00,,---,0.01,VWS V14.00,2013-08-13 10:09:00,
2013-08-13 06:11:00,59.2,57.5,29.78,NW,315,4.0,16.0,94,0.00,,---,0.01,VWS V14.00,2013-08-13 10:11:00,
2013-08-13 06:12:00,59.2,57.5,29.78,NW,315,4.0,16.0,94,0.00,,---,0.01,VWS V14.00,2013-08-13 10:12:00,
2013-08-13 06:14:00,59.2,57.5,29.78,North,3,9.0,16.0,94,0.00,,---,0.01,VWS V14.00,2013-08-13 10:14:00,
2013-08-13 06:16:00,59.2,57.5,29.79,North,354,0.0,16.0,94,0.00,,---,0.01,VWS V14.00,2013-08-13 10:16:00,
2013-08-13 06:17:00,59.2,57.5,29.79,NW,311,10.0,16.0,94,0.00,,---,0.01,VWS V14.00,2013-08-13 10:17:00,
2013-08-13 06:20:00,59.2,57.5,29.79,WNW,298,13.0,16.0,94,0.00,,---,0.01,VWS V14.00,2013-08-13 10:20:00,
2013-08-13 06:22:00,59.2,57.5,29.79,NNW,347,4.0,16.0,94,0.00,,---,0.01,VWS V14.00,2013-08-13 10:22:00,
2013-08-13 06:25:00,59.2,57.5,29.79,NNW,329,9.0,16.0,94,0.00,,---,0.01,VWS V14.00,2013-08-13 10:25:00,
2013-08-13 06:27:00,59.2,57.5,29.79,WNW,288,2.0,16.0,94,0.00,,---,0.01,VWS V14.00,2013-08-13 10:27:00,
2013-08-13 06:30:00,59.2,57.5,29.79,WNW,301,4.0,16.0,94,0.00,,---,0.01,VWS V14.00,2013-08-13 10:30:00,
2013-08-13 06:32:00,59.0,57.3,29.79,North,349,7.0,16.0,94,0.00,,---,0.01,VWS V14.00,2013-08-13 10:32:00,
2013-08-13 06:33:00,59.0,57.3,29.79,NNW,332,1.0,16.0,94,0.00,,---,0.01,VWS V14.00,2013-08-13 10:33:00,
2013-08-13 06:35:00,59.0,57.3,29.79,North,0,0.0,16.0,94,0.00,,---,0.01,VWS V14.00,2013-08-13 10:35:00,
2013-08-13 06:37:00,59.0,57.3,29.79,NNW,330,4.0,16.0,94,0.00,,---,0.01,VWS V14.00,2013-08-13 10:37:00,
2013-08-13 06:38:00,59.0,57.3,29.79,NNW,340,0.0,16.0,94,0.00,,---,0.01,VWS V14.00,2013-08-13 10:38:00,
2013-08-13 06:40:00,59.0,57.3,29.79,WNW,302,8.0,16.0,94,0.00,,---,0.01,VWS V14.00,2013-08-13 10:40:00,
2013-08-13 06:42:00,58.9,57.2,29.79,NW,308,7.0,17.0,94,0.00,,---,0.01,VWS V14.00,2013-08-13 10:42:00,
2013-08-13 06:43:00,58.9,57.2,29.79,NW,304,2.0,17.0,94,0.00,,---,0.01,VWS V14.00,2013-08-13 10:43:00,
2013-08-13 06:46:00,58.9,57.2,29.80,North,0,0.0,17.0,94,0.00,,---,0.01,VWS V14.00,2013-08-13 10:46:00,
2013-08-13 06:47:00,58.9,57.2,29.80,NNE,31,4.0,17.0,94,0.00,,---,0.01,VWS V14.00,2013-08-13 10:47:00,
2013-08-13 06:48:00,58.9,57.2,29.80,North,357,1.0,17.0,94,0.00,,---,0.01,VWS V14.00,2013-08-13 10:48:00,
2013-08-13 06:51:00,58.7,56.7,29.80,NW,315,0.0,17.0,93,0.00,,---,0.01,VWS V14.00,2013-08-13 10:51:00,
2013-08-13 06:52:00,58.7,57.0,29.80,North,357,0.0,17.0,94,0.00,,---,0.01,VWS V14.00,2013-08-13 10:52:00,
2013-08-13 06:53:00,58.7,57.0,29.80,West,277,10.0,17.0,94,0.00,,---,0.01,VWS V14.00,2013-08-13 10:53:00,
2013-08-13 06:56:00,58.6,56.6,29.80,NW,320,1.0,17.0,93,0.00,,---,0.01,VWS V14.00,2013-08-13 10:56:00,
2013-08-13 06:57:00,58.6,56.6,29.80,North,7,7.0,17.0,93,0.00,,---,0.01,VWS V14.00,2013-08-13 10:57:00,
2013-08-13 06:58:00,58.6,56.6,29.80,NNE,17,6.0,17.0,93,0.00,,---,0.01,VWS V14.00,2013-08-13 10:58:00,
2013-08-13 07:02:00,58.4,56.4,29.80,NW,316,0.0,9.0,93,0.00,,---,0.01,VWS V14.00,2013-08-13 11:02:00,
2013-08-13 07:03:00,58.4,56.4,29.80,NW,323,2.0,9.0,93,0.00,,---,0.01,VWS V14.00,2013-08-13 11:03:00,
2013-08-13 07:07:00,58.4,56.4,29.80,NW,325,0.0,13.0,93,0.00,,---,0.01,VWS V14.00,2013-08-13 11:07:00,
2013-08-13 07:08:00,58.4,56.4,29.80,WNW,292,0.0,13.0,93,0.00,,---,0.01,VWS V14.00,2013-08-13 11:08:00,
2013-08-13 07:12:00,58.3,56.3,29.80,NW,318,8.0,18.0,93,0.00,,---,0.01,VWS V14.00,2013-08-13 11:12:00,
2013-08-13 07:13:00,58.3,56.3,29.80,NNW,339,0.0,18.0,93,0.00,,---,0.01,VWS V14.00,2013-08-13 11:13:00,
2013-08-13 07:17:00,58.1,56.1,29.81,NW,306,1.0,18.0,93,0.00,,---,0.01,VWS V14.00,2013-08-13 11:17:00,
2013-08-13 07:18:00,58.1,56.1,29.81,North,350,6.0,18.0,93,0.00,,---,0.01,VWS V14.00,2013-08-13 11:18:00,
2013-08-13 07:19:00,58.0,56.0,29.81,NW,318,11.0,18.0,93,0.00,,---,0.01,VWS V14.00,2013-08-13 11:19:00,
2013-08-13 07:22:00,58.0,56.0,29.81,NNW,347,7.0,18.0,93,0.00,,---,0.01,VWS V14.00,2013-08-13 11:22:00,
2013-08-13 07:23:00,58.0,56.0,29.81,NNW,329,0.0,18.0,93,0.00,,---,0.01,VWS V14.00,2013-08-13 11:23:00,
2013-08-13 07:24:00,58.0,56.0,29.81,NW,313,0.0,18.0,93,0.00,,---,0.01,VWS V14.00,2013-08-13 11:24:00,
2013-08-13 07:27:00,57.8,55.8,29.81,NW,313,0.0,18.0,93,0.00,,---,0.01,VWS V14.00,2013-08-13 11:27:00,
2013-08-13 07:28:00,57.8,55.8,29.81,North,353,11.0,18.0,93,0.00,,---,0.01,VWS V14.00,2013-08-13 11:28:00,
2013-08-13 07:29:00,57.6,55.6,29.81,WNW,285,6.0,18.0,93,0.00,,---,0.01,VWS V14.00,2013-08-13 11:29:00,
2013-08-13 07:33:00,57.6,55.6,29.82,North,0,1.0,18.0,93,0.00,,---,0.01,VWS V14.00,2013-08-13 11:33:00,
2013-08-13 07:34:00,57.5,55.5,29.82,NW,305,7.0,18.0,93,0.00,,---,0.01,VWS V14.00,2013-08-13 11:34:00,
2013-08-13 07:38:00,57.5,55.5,29.82,WNW,302,10.0,18.0,93,0.00,,---,0.01,VWS V14.00,2013-08-13 11:38:00,
2013-08-13 07:39:00,57.5,55.5,29.82,North,0,0.0,18.0,93,0.00,,---,0.01,VWS V14.00,2013-08-13 11:39:00,
2013-08-13 07:40:00,57.5,55.5,29.82,WNW,288,0.0,18.0,93,0.00,,---,0.01,VWS V14.00,2013-08-13 11:40:00,
2013-08-13 07:44:00,57.5,55.5,29.82,NNW,344,9.0,18.0,93,0.00,,---,0.01,VWS V14.00,2013-08-13 11:44:00,
2013-08-13 07:45:00,57.3,55.3,29.82,North,357,8.0,18.0,93,0.00,,---,0.01,VWS V14.00,2013-08-13 11:45:00,
2013-08-13 07:48:00,57.3,55.3,29.82,WNW,298,2.0,18.0,93,0.00,,---,0.01,VWS V14.00,2013-08-13 11:48:00,
2013-08-13 07:49:00,57.3,55.3,29.82,NW,312,0.0,18.0,93,0.00,,---,0.01,VWS V14.00,2013-08-13 11:49:00,
2013-08-13 07:50:00,57.3,55.3,29.82,North,0,8.0,18.0,93,0.00,,---,0.01,VWS V14.00,2013-08-13 11:50:00,
2013-08-13 07:51:00,57.3,55.3,29.82,WNW,284,6.0,18.0,93,0.00,,---,0.01,VWS V14.00,2013-08-13 11:51:00,
2013-08-13 07:54:00,57.3,55.0,29.82,NW,316,8.0,18.0,92,0.00,,---,0.01,VWS V14.00,2013-08-13 11:54:00,
2013-08-13 07:55:00,57.3,55.0,29.82,NW,305,14.0,18.0,92,0.00,,---,0.01,VWS V14.00,2013-08-13 11:55:00,
2013-08-13 07:56:00,57.3,55.0,29.82,NW,322,4.0,18.0,92,0.00,,---,0.01,VWS V14.00,2013-08-13 11:56:00,
2013-08-13 07:59:00,57.3,55.0,29.82,NNW,342,7.0,18.0,92,0.00,,---,0.01,VWS V14.00,2013-08-13 11:59:00,
2013-08-13 08:01:00,57.3,55.0,29.82,WNW,292,4.0,18.0,92,0.00,,---,0.01,VWS V14.00,2013-08-13 12:01:00,
2013-08-13 08:02:00,57.3,55.0,29.82,WNW,289,7.0,10.0,92,0.00,,---,0.01,VWS V14.00,2013-08-13 12:02:00,
2013-08-13 08:04:00,57.3,55.0,29.82,NW,305,8.0,13.0,92,0.00,,---,0.01,VWS V14.00,2013-08-13 12:04:00,
2013-08-13 08:05:00,57.3,55.0,29.82,NW,312,4.0,13.0,92,0.00,,---,0.01,VWS V14.00,2013-08-13 12:05:00,
2013-08-13 08:06:00,57.3,55.0,29.82,NNW,342,0.0,13.0,92,0.00,,---,0.01,VWS V14.00,2013-08-13 12:06:00,
2013-08-13 08:07:00,57.3,55.0,29.82,NW,309,8.0,13.0,92,0.00,,---,0.01,VWS V14.00,2013-08-13 12:07:00,
2013-08-13 08:09:00,57.2,54.9,29.82,NW,319,0.0,14.0,92,0.00,,---,0.01,VWS V14.00,2013-08-13 12:09:00,
2013-08-13 08:10:00,57.2,54.9,29.82,NNW,330,9.0,14.0,92,0.00,,---,0.01,VWS V14.00,2013-08-13 12:10:00,
2013-08-13 08:11:00,57.2,54.9,29.82,North,356,2.0,14.0,92,0.00,,---,0.01,VWS V14.00,2013-08-13 12:11:00,
2013-08-13 08:12:00,57.0,54.7,29.82,NNW,344,7.0,14.0,92,0.00,,---,0.01,VWS V14.00,2013-08-13 12:12:00,
2013-08-13 08:14:00,57.0,54.7,29.82,NNW,340,8.0,14.0,92,0.00,,---,0.01,VWS V14.00,2013-08-13 12:14:00,
2013-08-13 08:15:00,57.0,54.7,29.82,NNW,330,0.0,14.0,92,0.00,,---,0.01,VWS V14.00,2013-08-13 12:15:00,
2013-08-13 08:16:00,57.0,54.7,29.83,NW,316,0.0,14.0,92,0.00,,---,0.01,VWS V14.00,2013-08-13 12:16:00,
2013-08-13 08:17:00,57.2,54.9,29.83,NNW,329,7.0,14.0,92,0.00,,---,0.01,VWS V14.00,2013-08-13 12:17:00,
2013-08-13 08:19:00,57.2,54.9,29.83,NNW,340,0.0,14.0,92,0.00,,---,0.01,VWS V14.00,2013-08-13 12:19:00,
2013-08-13 08:20:00,57.2,54.9,29.83,NW,313,4.0,14.0,92,0.00,,---,0.01,VWS V14.00,2013-08-13 12:20:00,
2013-08-13 08:21:00,57.0,54.7,29.83,NW,308,6.0,14.0,92,0.00,,---,0.01,VWS V14.00,2013-08-13 12:21:00,
2013-08-13 08:22:00,57.0,54.7,29.83,NW,320,7.0,14.0,92,0.00,,---,0.01,VWS V14.00,2013-08-13 12:22:00,
2013-08-13 08:25:00,56.9,54.3,29.83,NNW,336,8.0,14.0,91,0.00,,---,0.01,VWS V14.00,2013-08-13 12:25:00,
2013-08-13 08:27:00,56.9,54.3,29.83,North,6,0.0,14.0,91,0.00,,---,0.01,VWS V14.00,2013-08-13 12:27:00,
2013-08-13 08:30:00,56.9,54.3,29.83,NW,309,0.0,14.0,91,0.00,,---,0.01,VWS V14.00,2013-08-13 12:30:00,
2013-08-13 08:32:00,56.9,54.3,29.83,NW,309,9.0,14.0,91,0.00,,---,0.01,VWS V14.00,2013-08-13 12:32:00,
2013-08-13 08:33:00,56.9,54.0,29.83,NW,325,7.0,14.0,90,0.00,,---,0.01,VWS V14.00,2013-08-13 12:33:00,
2013-08-13 08:35:00,56.9,54.0,29.83,North,356,10.0,14.0,90,0.00,,---,0.01,VWS V14.00,2013-08-13 12:35:00,
2013-08-13 08:37:00,56.9,54.0,29.83,WNW,301,2.0,14.0,90,0.00,,---,0.01,VWS V14.00,2013-08-13 12:37:00,
2013-08-13 08:38:00,56.9,54.0,29.83,North,3,0.0,14.0,90,0.00,,---,0.01,VWS V14.00,2013-08-13 12:38:00,
2013-08-13 08:40:00,56.9,53.7,29.83,WNW,298,0.0,14.0,89,0.00,,---,0.01,VWS V14.00,2013-08-13 12:40:00,
2013-08-13 08:41:00,56.9,53.7,29.83,WNW,298,0.0,14.0,89,0.00,,---,0.01,VWS V14.00,2013-08-13 12:41:00,
2013-08-13 08:42:00,56.9,53.7,29.83,North,349,0.0,14.0,89,0.00,,---,0.01,VWS V14.00,2013-08-13 12:42:00,
2013-08-13 08:43:00,56.9,53.7,29.83,North,0,1.0,14.0,89,0.00,,---,0.01,VWS V14.00,2013-08-13 12:43:00,
2013-08-13 08:45:00,56.9,53.7,29.84,NW,311,9.0,14.0,89,0.00,,---,0.01,VWS V14.00,2013-08-13 12:45:00,
2013-08-13 08:46:00,56.9,53.7,29.84,NNW,329,11.0,16.0,89,0.00,,---,0.01,VWS V14.00,2013-08-13 12:46:00,
2013-08-13 08:48:00,56.7,53.2,29.84,NNE,17,6.0,16.0,88,0.00,,---,0.01,VWS V14.00,2013-08-13 12:48:00,
2013-08-13 08:51:00,56.6,53.1,29.84,NNE,20,8.0,16.0,88,0.00,,---,0.01,VWS V14.00,2013-08-13 12:51:00,
2013-08-13 08:53:00,56.7,53.2,29.84,NNW,335,2.0,16.0,88,0.00,,---,0.01,VWS V14.00,2013-08-13 12:53:00,
2013-08-13 08:56:00,56.9,53.4,29.84,NNW,329,7.0,16.0,88,0.00,,---,0.01,VWS V14.00,2013-08-13 12:56:00,
2013-08-13 08:58:00,56.9,53.4,29.84,NW,323,0.0,16.0,88,0.00,,---,0.01,VWS V14.00,2013-08-13 12:58:00,
2013-08-13 09:01:00,56.7,53.2,29.85,NW,312,2.0,17.0,88,0.00,,---,0.01,VWS V14.00,2013-08-13 13:01:00,
2013-08-13 09:03:00,56.7,53.2,29.85,NNW,344,0.0,10.0,88,0.00,,---,0.01,VWS V14.00,2013-08-13 13:03:00,
2013-08-13 09:06:00,56.6,52.8,29.85,NW,318,6.0,15.0,87,0.00,,---,0.01,VWS V14.00,2013-08-13 13:06:00,
2013-08-13 09:08:00,56.5,52.7,29.85,North,353,10.0,15.0,87,0.00,,---,0.01,VWS V14.00,2013-08-13 13:08:00,
2013-08-13 09:11:00,56.5,52.7,29.85,ESE,106,1.0,16.0,87,0.00,,---,0.01,VWS V14.00,2013-08-13 13:11:00,
2013-08-13 09:12:00,56.5,52.7,29.85,NW,311,11.0,16.0,87,0.00,,---,0.01,VWS V14.00,2013-08-13 13:12:00,
2013-08-13 09:13:00,56.5,52.4,29.85,NNE,20,8.0,16.0,86,0.00,,---,0.01,VWS V14.00,2013-08-13 13:13:00,
2013-08-13 09:16:00,56.5,52.4,29.86,North,0,6.0,17.0,86,0.00,,---,0.01,VWS V14.00,2013-08-13 13:16:00,
2013-08-13 09:17:00,56.5,52.4,29.86,East,82,1.0,17.0,86,0.00,,---,0.01,VWS V14.00,2013-08-13 13:17:00,
2013-08-13 09:18:00,56.5,52.4,29.86,NW,325,8.0,17.0,86,0.00,,---,0.01,VWS V14.00,2013-08-13 13:18:00,
2013-08-13 09:21:00,56.6,52.2,29.86,NW,325,1.0,17.0,85,0.00,,---,0.01,VWS V14.00,2013-08-13 13:21:00,
2013-08-13 09:22:00,56.6,52.5,29.86,North,0,7.0,17.0,86,0.00,,---,0.01,VWS V14.00,2013-08-13 13:22:00,
2013-08-13 09:23:00,56.6,52.2,29.86,NNE,27,0.0,17.0,85,0.00,,---,0.01,VWS V14.00,2013-08-13 13:23:00,
2013-08-13 09:24:00,56.6,52.2,29.86,NW,309,8.0,17.0,85,0.00,,---,0.01,VWS V14.00,2013-08-13 13:24:00,
2013-08-13 09:26:00,56.6,51.8,29.86,NNW,340,6.0,17.0,84,0.00,,---,0.01,VWS V14.00,2013-08-13 13:26:00,
2013-08-13 09:27:00,56.7,51.9,29.86,NW,309,7.0,17.0,84,0.00,,---,0.01,VWS V14.00,2013-08-13 13:27:00,
2013-08-13 09:28:00,56.7,51.9,29.86,NW,326,6.0,17.0,84,0.00,,---,0.01,VWS V14.00,2013-08-13 13:28:00,
2013-08-13 09:29:00,56.7,51.9,29.86,NW,323,1.0,17.0,84,0.00,,---,0.01,VWS V14.00,2013-08-13 13:29:00,
2013-08-13 09:31:00,56.7,51.6,29.87,North,0,8.0,17.0,83,0.00,,---,0.01,VWS V14.00,2013-08-13 13:31:00,
2013-08-13 09:32:00,56.9,51.8,29.87,WNW,294,0.0,17.0,83,0.00,,---,0.01,VWS V14.00,2013-08-13 13:32:00,
2013-08-13 09:33:00,57.0,51.9,29.87,NW,323,7.0,17.0,83,0.00,,---,0.01,VWS V14.00,2013-08-13 13:33:00,
2013-08-13 09:34:00,57.0,51.9,29.87,NW,311,0.0,17.0,83,0.00,,---,0.01,VWS V14.00,2013-08-13 13:34:00,
2013-08-13 09:36:00,57.2,52.1,29.87,WNW,289,6.0,17.0,83,0.00,,---,0.01,VWS V14.00,2013-08-13 13:36:00,
2013-08-13 09:37:00,57.2,52.1,29.87,NW,304,8.0,17.0,83,0.00,,---,0.01,VWS V14.00,2013-08-13 13:37:00,
2013-08-13 09:38:00,57.2,52.1,29.87,West,281,15.0,17.0,83,0.00,,---,0.01,VWS V14.00,2013-08-13 13:38:00,
2013-08-13 09:39:00,57.2,52.1,29.87,WNW,295,7.0,17.0,83,0.00,,---,0.01,VWS V14.00,2013-08-13 13:39:00,
2013-08-13 09:41:00,57.0,51.6,29.87,NW,313,7.0,17.0,82,0.00,,---,0.01,VWS V14.00,2013-08-13 13:41:00,
2013-08-13 09:42:00,57.0,51.9,29.87,WNW,288,8.0,17.0,83,0.00,,---,0.01,VWS V14.00,2013-08-13 13:42:00,
2013-08-13 09:44:00,57.2,52.1,29.87,North,0,2.0,17.0,83,0.00,,---,0.01,VWS V14.00,2013-08-13 13:44:00,
2013-08-13 09:46:00,57.2,51.8,29.87,NNW,339,1.0,17.0,82,0.00,,---,0.01,VWS V14.00,2013-08-13 13:46:00,
2013-08-13 09:47:00,57.2,51.8,29.87,NW,304,10.0,17.0,82,0.00,,---,0.01,VWS V14.00,2013-08-13 13:47:00,
2013-08-13 09:49:00,57.0,51.2,29.87,NW,308,1.0,17.0,81,0.00,,---,0.01,VWS V14.00,2013-08-13 13:49:00,
2013-08-13 09:50:00,57.3,51.9,29.87,NW,305,6.0,17.0,82,0.00,,---,0.01,VWS V14.00,2013-08-13 13:50:00,
2013-08-13 09:52:00,57.3,51.9,29.87,NW,322,6.0,17.0,82,0.00,,---,0.01,VWS V14.00,2013-08-13 13:52:00,
2013-08-13 09:54:00,57.3,51.5,29.87,North,0,1.0,17.0,81,0.00,,---,0.01,VWS V14.00,2013-08-13 13:54:00,
2013-08-13 09:55:00,57.3,51.2,29.87,North,3,1.0,17.0,80,0.00,,---,0.01,VWS V14.00,2013-08-13 13:55:00,
2013-08-13 09:57:00,57.5,51.7,29.87,North,6,1.0,17.0,81,0.00,,---,0.01,VWS V14.00,2013-08-13 13:57:00,
2013-08-13 09:59:00,57.6,51.1,29.87,NNE,13,10.0,17.0,79,0.00,,---,0.01,VWS V14.00,2013-08-13 13:59:00,
2013-08-13 10:00:00,57.6,50.8,29.87,North,349,0.0,17.0,78,0.00,,---,0.01,VWS V14.00,2013-08-13 14:00:00,
2013-08-13 10:02:00,58.0,51.2,29.87,North,0,15.0,15.0,78,0.00,,---,0.01,VWS V14.00,2013-08-13 14:02:00,
2013-08-13 10:04:00,58.1,51.3,29.87,NW,325,2.0,15.0,78,0.00,,---,0.01,VWS V14.00,2013-08-13 14:04:00,
2013-08-13 10:05:00,58.1,51.3,29.87,North,357,8.0,15.0,78,0.00,,---,0.01,VWS V14.00,2013-08-13 14:05:00,
2013-08-13 10:07:00,58.0,51.2,29.87,NW,325,6.0,15.0,78,0.00,,---,0.01,VWS V14.00,2013-08-13 14:07:00,
2013-08-13 10:09:00,58.0,51.2,29.87,NNW,336,6.0,17.0,78,0.00,,---,0.01,VWS V14.00,2013-08-13 14:09:00,
2013-08-13 10:10:00,58.0,51.2,29.87,NNW,336,6.0,17.0,78,0.00,,---,0.01,VWS V14.00,2013-08-13 14:10:00,
2013-08-13 10:12:00,57.6,50.8,29.87,North,3,8.0,17.0,78,0.00,,---,0.01,VWS V14.00,2013-08-13 14:12:00,
2013-08-13 10:14:00,57.6,50.8,29.87,North,0,6.0,17.0,78,0.00,,---,0.01,VWS V14.00,2013-08-13 14:14:00,
2013-08-13 10:15:00,57.6,50.8,29.88,NNW,329,9.0,17.0,78,0.00,,---,0.01,VWS V14.00,2013-08-13 14:15:00,
2013-08-13 10:17:00,57.6,50.8,29.88,WNW,301,4.0,17.0,78,0.00,,---,0.01,VWS V14.00,2013-08-13 14:17:00,
2013-08-13 10:19:00,57.8,51.0,29.88,East,82,0.0,17.0,78,0.00,,---,0.01,VWS V14.00,2013-08-13 14:19:00,
2013-08-13 10:20:00,57.8,51.0,29.88,NW,311,0.0,17.0,78,0.00,,---,0.01,VWS V14.00,2013-08-13 14:20:00,
2013-08-13 10:22:00,57.8,51.0,29.88,North,353,11.0,17.0,78,0.00,,---,0.01,VWS V14.00,2013-08-13 14:22:00,
2013-08-13 10:23:00,57.8,50.7,29.88,NW,322,14.0,17.0,77,0.00,,---,0.01,VWS V14.00,2013-08-13 14:23:00,
2013-08-13 10:24:00,57.8,50.7,29.88,WNW,289,8.0,17.0,77,0.00,,---,0.01,VWS V14.00,2013-08-13 14:24:00,
2013-08-13 10:25:00,58.0,51.2,29.88,WNW,292,4.0,17.0,78,0.00,,---,0.01,VWS V14.00,2013-08-13 14:25:00,
2013-08-13 10:26:00,58.0,51.2,29.88,NNW,339,0.0,17.0,78,0.00,,---,0.01,VWS V14.00,2013-08-13 14:26:00,
2013-08-13 10:27:00,58.1,51.3,29.88,NNE,31,8.0,17.0,78,0.00,,---,0.01,VWS V14.00,2013-08-13 14:27:00,
2013-08-13 10:28:00,58.1,51.3,29.88,North,0,9.0,17.0,78,0.00,,---,0.01,VWS V14.00,2013-08-13 14:28:00,
2013-08-13 10:30:00,58.3,51.1,29.88,North,3,0.0,17.0,77,0.00,,---,0.01,VWS V14.00,2013-08-13 14:30:00,
2013-08-13 10:31:00,58.3,51.1,29.88,NW,319,1.0,17.0,77,0.00,,---,0.01,VWS V14.00,2013-08-13 14:31:00,
2013-08-13 10:32:00,58.4,51.6,29.88,NNW,329,0.0,17.0,78,0.00,,---,0.01,VWS V14.00,2013-08-13 14:32:00,
2013-08-13 10:33:00,58.4,51.6,29.88,WNW,296,8.0,17.0,78,0.00,,---,0.01,VWS V14.00,2013-08-13 14:33:00,
2013-08-13 10:35:00,58.4,51.2,29.88,WNW,282,8.0,17.0,77,0.00,,---,0.01,VWS V14.00,2013-08-13 14:35:00,
2013-08-13 10:36:00,58.4,51.2,29.88,WNW,282,13.0,17.0,77,0.00,,---,0.01,VWS V14.00,2013-08-13 14:36:00,
2013-08-13 10:37:00,58.3,51.1,29.88,NNW,333,6.0,17.0,77,0.00,,---,0.01,VWS V14.00,2013-08-13 14:37:00,
2013-08-13 10:39:00,58.3,51.1,29.88,WNW,299,11.0,17.0,77,0.00,,---,0.01,VWS V14.00,2013-08-13 14:39:00,
2013-08-13 10:40:00,58.4,51.2,29.88,NNW,343,8.0,17.0,77,0.00,,---,0.01,VWS V14.00,2013-08-13 14:40:00,
2013-08-13 10:41:00,58.4,50.9,29.88,NW,312,7.0,17.0,76,0.00,,---,0.01,VWS V14.00,2013-08-13 14:41:00,
2013-08-13 10:43:00,58.4,50.5,29.88,NW,313,13.0,17.0,75,0.00,,---,0.01,VWS V14.00,2013-08-13 14:43:00,
2013-08-13 10:44:00,58.6,50.3,29.88,NW,315,14.0,17.0,74,0.00,,---,0.01,VWS V14.00,2013-08-13 14:44:00,
2013-08-13 10:45:00,58.6,50.3,29.88,WNW,301,4.0,17.0,74,0.00,,---,0.01,VWS V14.00,2013-08-13 14:45:00,
2013-08-13 10:46:00,58.7,50.8,29.88,WNW,294,4.0,17.0,75,0.00,,---,0.01,VWS V14.00,2013-08-13 14:46:00,
2013-08-13 10:48:00,58.6,50.7,29.88,North,357,7.0,17.0,75,0.00,,---,0.01,VWS V14.00,2013-08-13 14:48:00,
2013-08-13 10:49:00,58.6,50.7,29.88,North,354,7.0,17.0,75,0.00,,---,0.01,VWS V14.00,2013-08-13 14:49:00,
2013-08-13 10:50:00,58.6,50.3,29.88,NW,305,6.0,17.0,74,0.00,,---,0.01,VWS V14.00,2013-08-13 14:50:00,
2013-08-13 10:51:00,58.7,50.5,29.88,NE,40,4.0,17.0,74,0.00,,---,0.01,VWS V14.00,2013-08-13 14:51:00,
2013-08-13 10:52:00,58.9,50.6,29.88,North,3,8.0,17.0,74,0.00,,---,0.01,VWS V14.00,2013-08-13 14:52:00,
2013-08-13 10:53:00,59.0,50.7,29.88,NW,311,15.0,17.0,74,0.00,,---,0.01,VWS V14.00,2013-08-13 14:53:00,
2013-08-13 10:54:00,59.0,51.1,29.88,NW,319,4.0,17.0,75,0.00,,---,0.01,VWS V14.00,2013-08-13 14:54:00,
2013-08-13 10:55:00,58.7,50.8,29.88,NW,315,2.0,17.0,75,0.00,,---,0.01,VWS V14.00,2013-08-13 14:55:00,
2013-08-13 10:56:00,58.7,50.8,29.88,NW,308,10.0,17.0,75,0.00,,---,0.01,VWS V14.00,2013-08-13 14:56:00,
2013-08-13 10:57:00,58.6,50.7,29.88,WNW,288,9.0,17.0,75,0.00,,---,0.01,VWS V14.00,2013-08-13 14:57:00,
2013-08-13 10:58:00,58.3,50.1,29.88,NNW,342,0.0,17.0,74,0.00,,---,0.01,VWS V14.00,2013-08-13 14:58:00,
2013-08-13 10:59:00,58.1,49.9,29.88,North,10,4.0,17.0,74,0.00,,---,0.01,VWS V14.00,2013-08-13 14:59:00,
2013-08-13 11:00:00,58.3,50.1,29.89,WNW,287,0.0,17.0,74,0.00,,---,0.01,VWS V14.00,2013-08-13 15:00:00,
2013-08-13 11:01:00,58.4,50.5,29.89,NNE,27,4.0,7.0,75,0.00,,---,0.01,VWS V14.00,2013-08-13 15:01:00,
2013-08-13 11:02:00,58.4,50.2,29.89,North,0,1.0,7.0,74,0.00,,---,0.01,VWS V14.00,2013-08-13 15:02:00,
2013-08-13 11:03:00,58.7,50.5,29.89,North,349,0.0,7.0,74,0.00,,---,0.01,VWS V14.00,2013-08-13 15:03:00,
2013-08-13 11:04:00,58.9,51.4,29.89,NW,325,7.0,9.0,76,0.00,,---,0.01,VWS V14.00,2013-08-13 15:04:00,
2013-08-13 11:06:00,59.0,50.4,29.89,North,0,8.0,9.0,73,0.00,,---,0.01,VWS V14.00,2013-08-13 15:06:00,
2013-08-13 11:07:00,59.2,50.6,29.89,North,0,1.0,9.0,73,0.00,,---,0.01,VWS V14.00,2013-08-13 15:07:00,
2013-08-13 11:09:00,59.2,50.2,29.89,NNE,27,9.0,14.0,72,0.00,,---,0.01,VWS V14.00,2013-08-13 15:09:00,
2013-08-13 11:10:00,59.5,50.8,29.89,North,10,13.0,15.0,73,0.00,,---,0.01,VWS V14.00,2013-08-13 15:10:00,
2013-08-13 11:11:00,59.5,50.8,29.89,North,350,9.0,15.0,73,0.00,,---,0.01,VWS V14.00,2013-08-13 15:11:00,
2013-08-13 11:12:00,59.3,49.9,29.89,West,264,10.0,15.0,71,0.00,,---,0.01,VWS V14.00,2013-08-13 15:12:00,
2013-08-13 11:14:00,59.3,50.3,29.89,North,356,0.0,15.0,72,0.00,,---,0.01,VWS V14.00,2013-08-13 15:14:00,
2013-08-13 11:15:00,59.3,50.3,29.89,NW,315,2.0,15.0,72,0.00,,---,0.01,VWS V14.00,2013-08-13 15:15:00,
2013-08-13 11:16:00,59.3,50.3,29.89,North,0,8.0,15.0,72,0.00,,---,0.01,VWS V14.00,2013-08-13 15:16:00,
2013-08-13 11:17:00,59.2,49.8,29.89,NE,55,2.0,15.0,71,0.00,,---,0.01,VWS V14.00,2013-08-13 15:17:00,
2013-08-13 11:19:00,59.2,49.8,29.89,NW,309,8.0,15.0,71,0.00,,---,0.01,VWS V14.00,2013-08-13 15:19:00,
2013-08-13 11:20:00,59.2,50.6,29.89,NW,323,4.0,15.0,73,0.00,,---,0.01,VWS V14.00,2013-08-13 15:20:00,
2013-08-13 11:21:00,59.3,50.7,29.89,North,350,9.0,15.0,73,0.00,,---,0.01,VWS V14.00,2013-08-13 15:21:00,
2013-08-13 11:23:00,59.6,50.2,29.89,North,7,0.0,15.0,71,0.00,,---,0.01,VWS V14.00,2013-08-13 15:23:00,
2013-08-13 11:24:00,59.6,49.8,29.89,NNE,20,2.0,15.0,70,0.00,,---,0.01,VWS V14.00,2013-08-13 15:24:00,
2013-08-13 11:25:00,59.8,49.6,29.89,NNE,17,9.0,15.0,69,0.00,,---,0.01,VWS V14.00,2013-08-13 15:25:00,
2013-08-13 11:26:00,59.8,49.6,29.89,North,353,6.0,15.0,69,0.00,,---,0.01,VWS V14.00,2013-08-13 15:26:00,
2013-08-13 11:28:00,59.9,49.7,29.89,ENE,58,8.0,15.0,69,0.00,,---,0.01,VWS V14.00,2013-08-13 15:28:00,
2013-08-13 11:30:00,60.1,49.9,29.89,NNE,24,4.0,15.0,69,0.00,,---,0.01,VWS V14.00,2013-08-13 15:30:00,
2013-08-13 11:31:00,60.1,49.9,29.89,NNE,13,11.0,15.0,69,0.00,,---,0.01,VWS V14.00,2013-08-13 15:31:00,
2013-08-13 11:32:00,60.1,49.5,29.89,NNE,30,8.0,15.0,68,0.00,,---,0.01,VWS V14.00,2013-08-13 15:32:00,
2013-08-13 11:33:00,60.2,50.0,29.89,NNE,24,10.0,15.0,69,0.00,,---,0.01,VWS V14.00,2013-08-13 15:33:00,
2013-08-13 11:35:00,60.5,51.1,29.89,WNW,282,17.0,17.0,71,0.00,,---,0.01,VWS V14.00,2013-08-13 15:35:00,
2013-08-13 11:36:00,60.5,50.7,29.89,West,275,8.0,17.0,70,0.00,,---,0.01,VWS V14.00,2013-08-13 15:36:00,
2013-08-13 11:37:00,60.7,51.6,29.89,NNW,340,7.0,17.0,72,0.00,,---,0.01,VWS V14.00,2013-08-13 15:37:00,
2013-08-13 11:38:00,60.7,51.6,29.89,NNW,332,4.0,17.0,72,0.00,,---,0.01,VWS V14.00,2013-08-13 15:38:00,
2013-08-13 11:40:00,60.4,51.0,29.89,NNW,333,4.0,17.0,71,0.00,,---,0.01,VWS V14.00,2013-08-13 15:40:00,
2013-08-13 11:41:00,60.4,51.0,29.89,NW,312,6.0,17.0,71,0.00,,---,0.01,VWS V14.00,2013-08-13 15:41:00,
2013-08-13 11:42:00,60.1,50.7,29.89,NNE,13,2.0,17.0,71,0.00,,---,0.01,VWS V14.00,2013-08-13 15:42:00,
2013-08-13 11:43:00,60.2,50.8,29.89,WNW,285,9.0,17.0,71,0.00,,---,0.01,VWS V14.00,2013-08-13 15:43:00,
2013-08-13 11:45:00,60.5,50.7,29.89,NW,318,6.0,17.0,70,0.00,,---,0.01,VWS V14.00,2013-08-13 15:45:00,
2013-08-13 11:46:00,60.7,50.9,29.89,North,6,9.0,17.0,70,0.00,,---,0.01,VWS V14.00,2013-08-13 15:46:00,
2013-08-13 11:48:00,60.9,51.1,29.89,NNE,31,7.0,17.0,70,0.00,,---,0.01,VWS V14.00,2013-08-13 15:48:00,
2013-08-13 11:49:00,60.9,51.1,29.89,NW,313,1.0,17.0,70,0.00,,---,0.01,VWS V14.00,2013-08-13 15:49:00,
2013-08-13 11:50:00,61.2,51.3,29.89,West,278,8.0,17.0,70,0.00,,---,0.01,VWS V14.00,2013-08-13 15:50:00,
2013-08-13 11:51:00,61.0,51.2,29.89,WNW,298,9.0,17.0,70,0.00,,---,0.01,VWS V14.00,2013-08-13 15:51:00,
2013-08-13 11:53:00,61.0,50.0,29.89,NNE,13,7.0,17.0,67,0.00,,---,0.01,VWS V14.00,2013-08-13 15:53:00,
2013-08-13 11:54:00,61.2,50.2,29.89,North,0,4.0,17.0,67,0.00,,---,0.01,VWS V14.00,2013-08-13 15:54:00,
2013-08-13 11:55:00,61.2,50.2,29.89,NW,315,6.0,17.0,67,0.00,,---,0.01,VWS V14.00,2013-08-13 15:55:00,
2013-08-13 11:56:00,61.3,51.1,29.89,NW,322,7.0,17.0,69,0.00,,---,0.01,VWS V14.00,2013-08-13 15:56:00,
2013-08-13 11:58:00,61.5,50.0,29.89,NNW,339,6.0,17.0,66,0.00,,---,0.01,VWS V14.00,2013-08-13 15:58:00,
2013-08-13 11:59:00,61.6,50.1,29.89,NE,41,6.0,17.0,66,0.00,,---,0.01,VWS V14.00,2013-08-13 15:59:00,
2013-08-13 12:01:00,61.8,50.7,29.89,NNW,329,9.0,17.0,67,0.00,,---,0.01,VWS V14.00,2013-08-13 16:01:00,
2013-08-13 12:02:00,62.0,50.9,29.89,WNW,299,2.0,11.0,67,0.00,,---,0.01,VWS V14.00,2013-08-13 16:02:00,
2013-08-13 12:03:00,62.0,51.3,29.89,NE,48,0.0,11.0,68,0.00,,---,0.01,VWS V14.00,2013-08-13 16:03:00,
2013-08-13 12:05:00,62.0,50.9,29.89,WNW,282,2.0,15.0,67,0.00,,---,0.01,VWS V14.00,2013-08-13 16:05:00,
2013-08-13 12:07:00,62.0,50.1,29.89,WNW,289,14.0,18.0,65,0.00,,---,0.01,VWS V14.00,2013-08-13 16:07:00,
2013-08-13 12:08:00,62.0,50.9,29.89,North,356,1.0,18.0,67,0.00,,---,0.01,VWS V14.00,2013-08-13 16:08:00,
2013-08-13 12:10:00,62.1,51.0,29.89,West,281,2.0,18.0,67,0.00,,---,0.01,VWS V14.00,2013-08-13 16:10:00,
2013-08-13 12:12:00,62.3,50.8,29.89,NE,44,1.0,18.0,66,0.00,,---,0.01,VWS V14.00,2013-08-13 16:12:00,
2013-08-13 12:14:00,62.1,49.8,29.89,NW,318,0.0,18.0,64,0.00,,---,0.01,VWS V14.00,2013-08-13 16:14:00,
2013-08-13 12:15:00,62.1,49.8,29.89,North,0,4.0,18.0,64,0.00,,---,0.01,VWS V14.00,2013-08-13 16:15:00,
2013-08-13 12:17:00,62.1,49.4,29.89,North,349,4.0,18.0,63,0.00,,---,0.01,VWS V14.00,2013-08-13 16:17:00,
2013-08-13 12:19:00,62.7,51.2,29.89,North,0,0.0,18.0,66,0.00,,---,0.01,VWS V14.00,2013-08-13 16:19:00,
2013-08-13 12:20:00,62.7,49.5,29.89,North,354,0.0,18.0,62,0.00,,---,0.01,VWS V14.00,2013-08-13 16:20:00,
2013-08-13 12:22:00,63.1,49.9,29.89,North,7,4.0,18.0,62,0.00,,---,0.01,VWS V14.00,2013-08-13 16:22:00,
2013-08-13 12:23:00,63.1,49.9,29.89,North,357,6.0,18.0,62,0.00,,---,0.01,VWS V14.00,2013-08-13 16:23:00,
2013-08-13 12:24:00,63.1,49.9,29.89,North,350,11.0,18.0,62,0.00,,---,0.01,VWS V14.00,2013-08-13 16:24:00,
2013-08-13 12:25:00,63.1,49.5,29.89,NE,37,8.0,18.0,61,0.00,,---,0.01,VWS V14.00,2013-08-13 16:25:00,
2013-08-13 12:27:00,63.1,49.9,29.89,North,0,6.0,18.0,62,0.00,,---,0.01,VWS V14.00,2013-08-13 16:27:00,
2013-08-13 12:28:00,63.2,50.0,29.89,NE,40,6.0,18.0,62,0.00,,---,0.01,VWS V14.00,2013-08-13 16:28:00,
2013-08-13 12:30:00,63.4,50.2,29.89,NW,323,11.0,18.0,62,0.00,,---,0.01,VWS V14.00,2013-08-13 16:30:00,
2013-08-13 12:32:00,63.4,48.8,29.89,NNE,23,2.0,18.0,59,0.00,,---,0.01,VWS V14.00,2013-08-13 16:32:00,
2013-08-13 12:33:00,63.4,48.8,29.89,NW,313,7.0,18.0,59,0.00,,---,0.01,VWS V14.00,2013-08-13 16:33:00,
2013-08-13 12:35:00,63.5,48.9,29.89,North,10,1.0,18.0,59,0.00,,---,0.01,VWS V14.00,2013-08-13 16:35:00,
2013-08-13 12:37:00,63.5,48.9,29.89,NW,323,1.0,18.0,59,0.00,,---,0.01,VWS V14.00,2013-08-13 16:37:00,
2013-08-13 12:38:00,63.5,48.9,29.89,North,7,11.0,18.0,59,0.00,,---,0.01,VWS V14.00,2013-08-13 16:38:00,
2013-08-13 12:40:00,63.5,48.9,29.89,NE,40,0.0,18.0,59,0.00,,---,0.01,VWS V14.00,2013-08-13 16:40:00,
2013-08-13 12:41:00,63.9,49.3,29.89,NNE,31,7.0,18.0,59,0.00,,---,0.01,VWS V14.00,2013-08-13 16:41:00,
2013-08-13 12:42:00,63.9,49.8,29.89,North,0,1.0,18.0,60,0.00,,---,0.01,VWS V14.00,2013-08-13 16:42:00,
2013-08-13 12:43:00,63.9,48.8,29.89,NNW,347,9.0,18.0,58,0.00,,---,0.01,VWS V14.00,2013-08-13 16:43:00,
2013-08-13 12:45:00,63.9,48.4,29.89,NNE,17,0.0,18.0,57,0.00,,---,0.01,VWS V14.00,2013-08-13 16:45:00,
2013-08-13 12:46:00,64.0,49.8,29.89,NW,318,6.0,18.0,60,0.00,,---,0.01,VWS V14.00,2013-08-13 16:46:00,
2013-08-13 12:47:00,64.2,50.9,29.89,NNE,27,0.0,18.0,62,0.00,,---,0.01,VWS V14.00,2013-08-13 16:47:00,
2013-08-13 12:48:00,64.2,50.9,29.89,North,10,10.0,18.0,62,0.00,,---,0.01,VWS V14.00,2013-08-13 16:48:00,
2013-08-13 12:49:00,64.2,49.1,29.89,NE,34,1.0,18.0,58,0.00,,---,0.01,VWS V14.00,2013-08-13 16:49:00,
2013-08-13 12:50:00,64.2,49.6,29.89,NNE,13,6.0,18.0,59,0.00,,---,0.01,VWS V14.00,2013-08-13 16:50:00,
2013-08-13 12:51:00,64.0,48.0,29.89,NE,41,4.0,18.0,56,0.00,,---,0.01,VWS V14.00,2013-08-13 16:51:00,
2013-08-13 12:52:00,64.0,48.0,29.89,North,0,13.0,18.0,56,0.00,,---,0.01,VWS V14.00,2013-08-13 16:52:00,
2013-08-13 12:53:00,64.0,48.5,29.89,NNE,17,9.0,18.0,57,0.00,,---,0.01,VWS V14.00,2013-08-13 16:53:00,
2013-08-13 12:54:00,64.0,48.0,29.89,North,356,4.0,18.0,56,0.00,,---,0.01,VWS V14.00,2013-08-13 16:54:00,
2013-08-13 12:55:00,64.0,48.5,29.89,NNE,24,0.0,18.0,57,0.00,,---,0.01,VWS V14.00,2013-08-13 16:55:00,
2013-08-13 12:56:00,64.0,48.9,29.89,NNE,27,0.0,18.0,58,0.00,,---,0.01,VWS V14.00,2013-08-13 16:56:00,
2013-08-13 12:58:00,64.0,48.9,29.89,NNW,343,0.0,18.0,58,0.00,,---,0.01,VWS V14.00,2013-08-13 16:58:00,
2013-08-13 12:59:00,64.3,49.2,29.89,NNW,329,1.0,18.0,58,0.00,,---,0.01,VWS V14.00,2013-08-13 16:59:00,
2013-08-13 13:00:00,64.7,51.0,29.89,NW,315,1.0,18.0,61,0.00,,---,0.01,VWS V14.00,2013-08-13 17:00:00,
2013-08-13 13:01:00,64.5,49.4,29.89,NNW,343,2.0,6.0,58,0.00,,---,0.01,VWS V14.00,2013-08-13 17:01:00,
2013-08-13 13:03:00,64.5,50.8,29.89,North,357,8.0,10.0,61,0.00,,---,0.01,VWS V14.00,2013-08-13 17:03:00,
2013-08-13 13:04:00,64.3,50.1,29.89,WNW,282,1.0,10.0,60,0.00,,---,0.01,VWS V14.00,2013-08-13 17:04:00,
2013-08-13 13:06:00,64.2,51.4,29.89,North,7,0.0,10.0,63,0.00,,---,0.01,VWS V14.00,2013-08-13 17:06:00,
2013-08-13 13:07:00,64.2,50.9,29.89,North,0,7.0,10.0,62,0.00,,---,0.01,VWS V14.00,2013-08-13 17:07:00,
2013-08-13 13:08:00,64.2,50.0,29.89,NE,48,8.0,17.0,60,0.00,,---,0.01,VWS V14.00,2013-08-13 17:08:00,
2013-08-13 13:12:00,64.2,47.7,29.89,North,0,10.0,20.0,55,0.00,,---,0.01,VWS V14.00,2013-08-13 17:12:00,
2013-08-13 13:13:00,64.3,47.3,29.89,NW,313,1.0,20.0,54,0.00,,---,0.01,VWS V14.00,2013-08-13 17:13:00,
2013-08-13 13:17:00,65.0,48.0,29.89,NNE,30,11.0,20.0,54,0.00,,---,0.01,VWS V14.00,2013-08-13 17:17:00,
2013-08-13 13:18:00,65.0,48.5,29.89,NE,48,9.0,20.0,55,0.00,,---,0.01,VWS V14.00,2013-08-13 17:18:00,
2013-08-13 13:22:00,65.2,51.4,29.89,NW,315,0.0,20.0,61,0.00,,---,0.01,VWS V14.00,2013-08-13 17:22:00,
2013-08-13 13:23:00,65.2,51.9,29.89,NW,322,0.0,20.0,62,0.00,,---,0.01,VWS V14.00,2013-08-13 17:23:00,
2013-08-13 13:27:00,64.5,49.0,29.89,NNE,31,0.0,20.0,57,0.00,,---,0.01,VWS V14.00,2013-08-13 17:27:00,
2013-08-13 13:28:00,64.3,49.2,29.89,North,0,7.0,20.0,58,0.00,,---,0.01,VWS V14.00,2013-08-13 17:28:00,
2013-08-13 13:33:00,64.7,50.1,29.89,WNW,291,1.0,20.0,59,0.00,,---,0.01,VWS V14.00,2013-08-13 17:33:00,
2013-08-13 13:34:00,65.2,51.9,29.89,WNW,299,6.0,20.0,62,0.00,,---,0.01,VWS V14.00,2013-08-13 17:34:00,
2013-08-13 13:38:00,65.2,50.1,29.89,WSW,258,8.0,21.0,58,0.00,,---,0.01,VWS V14.00,2013-08-13 17:38:00,
2013-08-13 13:39:00,65.3,50.6,29.89,North,356,4.0,21.0,59,0.00,,---,0.01,VWS V14.00,2013-08-13 17:39:00,
2013-08-13 13:43:00,65.6,51.4,29.89,WNW,301,16.0,21.0,60,0.00,,---,0.01,VWS V14.00,2013-08-13 17:43:00,
2013-08-13 13:44:00,65.6,50.0,29.89,West,264,11.0,21.0,57,0.00,,---,0.01,VWS V14.00,2013-08-13 17:44:00,
2013-08-13 13:48:00,65.6,49.0,29.90,North,350,4.0,21.0,55,0.00,,---,0.01,VWS V14.00,2013-08-13 17:48:00,
2013-08-13 13:49:00,65.8,49.2,29.90,WNW,282,9.0,21.0,55,0.00,,---,0.01,VWS V14.00,2013-08-13 17:49:00,
2013-08-13 13:53:00,66.1,51.4,29.90,North,0,16.0,21.0,59,0.00,,---,0.01,VWS V14.00,2013-08-13 17:53:00,
2013-08-13 13:54:00,66.1,48.5,29.90,NNW,329,7.0,21.0,53,0.00,,---,0.01,VWS V14.00,2013-08-13 17:54:00,
2013-08-13 13:58:00,66.0,48.4,29.90,NNW,332,4.0,21.0,53,0.00,,---,0.01,VWS V14.00,2013-08-13 17:58:00,
2013-08-13 13:59:00,66.0,48.4,29.90,North,357,0.0,21.0,53,0.00,,---,0.01,VWS V14.00,2013-08-13 17:59:00,
2013-08-13 14:03:00,65.3,49.2,29.90,WNW,296,10.0,14.0,56,0.00,,---,0.01,VWS V14.00,2013-08-13 18:03:00,
2013-08-13 14:04:00,65.3,49.7,29.90,NNW,335,13.0,14.0,57,0.00,,---,0.01,VWS V14.00,2013-08-13 18:04:00,
2013-08-13 14:08:00,66.0,51.3,29.90,WNW,296,11.0,17.0,59,0.00,,---,0.01,VWS V14.00,2013-08-13 18:08:00,
2013-08-13 14:09:00,66.1,51.4,29.90,NNW,330,14.0,18.0,59,0.00,,---,0.01,VWS V14.00,2013-08-13 18:09:00,
2013-08-13 14:10:00,66.0,51.3,29.90,NW,311,4.0,18.0,59,0.00,,---,0.01,VWS V14.00,2013-08-13 18:10:00,
2013-08-13 14:13:00,66.3,48.2,29.90,WNW,291,2.0,18.0,52,0.00,,---,0.01,VWS V14.00,2013-08-13 18:13:00,
2013-08-13 14:14:00,66.4,48.3,29.90,WNW,301,4.0,18.0,52,0.00,,---,0.01,VWS V14.00,2013-08-13 18:14:00,
2013-08-13 14:15:00,66.3,50.2,29.90,NNW,342,8.0,18.0,56,0.00,,---,0.01,VWS V14.00,2013-08-13 18:15:00,
2013-08-13 14:18:00,65.5,48.4,29.90,NW,322,13.0,18.0,54,0.00,,---,0.01,VWS V14.00,2013-08-13 18:18:00,
2013-08-13 14:19:00,65.5,48.4,29.90,North,10,0.0,18.0,54,0.00,,---,0.01,VWS V14.00,2013-08-13 18:19:00,
2013-08-13 14:20:00,65.3,48.2,29.90,NW,326,6.0,18.0,54,0.00,,---,0.01,VWS V14.00,2013-08-13 18:20:00,
2013-08-13 14:24:00,65.3,48.2,29.90,NNW,329,13.0,18.0,54,0.00,,---,0.01,VWS V14.00,2013-08-13 18:24:00,
2013-08-13 14:25:00,65.0,48.0,29.90,NNE,16,9.0,18.0,54,0.00,,---,0.01,VWS V14.00,2013-08-13 18:25:00,
2013-08-13 14:29:00,65.5,48.9,29.90,North,353,9.0,18.0,55,0.00,,---,0.01,VWS V14.00,2013-08-13 18:29:00,
2013-08-13 14:30:00,66.0,49.4,29.90,WNW,296,9.0,18.0,55,0.00,,---,0.01,VWS V14.00,2013-08-13 18:30:00,
2013-08-13 14:34:00,66.1,50.4,29.90,North,0,2.0,18.0,57,0.00,,---,0.01,VWS V14.00,2013-08-13 18:34:00,
2013-08-13 14:35:00,66.1,49.5,29.90,North,350,11.0,18.0,55,0.00,,---,0.01,VWS V14.00,2013-08-13 18:35:00,
2013-08-13 14:39:00,65.5,47.9,29.90,NNW,347,4.0,20.0,53,0.00,,---,0.01,VWS V14.00,2013-08-13 18:39:00,
2013-08-13 14:40:00,65.3,47.2,29.90,North,0,10.0,20.0,52,0.00,,---,0.01,VWS V14.00,2013-08-13 18:40:00,
2013-08-13 14:44:00,65.0,48.0,29.90,North,0,8.0,20.0,54,0.00,,---,0.01,VWS V14.00,2013-08-13 18:44:00,
2013-08-13 14:45:00,65.0,48.5,29.90,NW,322,6.0,20.0,55,0.00,,---,0.01,VWS V14.00,2013-08-13 18:45:00,
2013-08-13 14:46:00,64.8,47.8,29.90,NNW,337,14.0,20.0,54,0.00,,---,0.01,VWS V14.00,2013-08-13 18:46:00,
2013-08-13 14:49:00,65.0,48.0,29.90,WNW,299,4.0,20.0,54,0.00,,---,0.01,VWS V14.00,2013-08-13 18:49:00,
2013-08-13 14:50:00,65.2,49.1,29.90,North,7,2.0,20.0,56,0.00,,---,0.01,VWS V14.00,2013-08-13 18:50:00,
2013-08-13 14:51:00,65.3,49.2,29.90,WNW,302,0.0,20.0,56,0.00,,---,0.01,VWS V14.00,2013-08-13 18:51:00,
2013-08-13 14:54:00,65.8,47.7,29.90,NNE,27,7.0,20.0,52,0.00,,---,0.01,VWS V14.00,2013-08-13 18:54:00,
2013-08-13 14:55:00,66.1,48.0,29.90,NNE,24,8.0,20.0,52,0.00,,---,0.01,VWS V14.00,2013-08-13 18:55:00,
2013-08-13 14:57:00,66.6,48.4,29.90,NW,316,0.0,20.0,52,0.00,,---,0.01,VWS V14.00,2013-08-13 18:57:00,
2013-08-13 14:59:00,66.4,48.8,29.90,NNW,332,13.0,20.0,53,0.00,,---,0.01,VWS V14.00,2013-08-13 18:59:00,
2013-08-13 15:00:00,66.4,48.8,29.90,NNW,336,10.0,20.0,53,0.00,,---,0.01,VWS V14.00,2013-08-13 19:00:00,
2013-08-13 15:01:00,66.3,48.2,29.90,NW,322,4.0,20.0,52,0.00,,---,0.01,VWS V14.00,2013-08-13 19:01:00,
2013-08-13 15:02:00,66.0,47.9,29.90,NW,326,11.0,11.0,52,0.00,,---,0.01,VWS V14.00,2013-08-13 19:02:00,
2013-08-13 15:05:00,66.0,48.9,29.90,NE,51,6.0,17.0,54,0.00,,---,0.01,VWS V14.00,2013-08-13 19:05:00,
2013-08-13 15:06:00,66.4,48.3,29.90,NW,309,7.0,17.0,52,0.00,,---,0.01,VWS V14.00,2013-08-13 19:06:00,
2013-08-13 15:07:00,66.6,48.4,29.90,NNW,347,11.0,17.0,52,0.00,,---,0.01,VWS V14.00,2013-08-13 19:07:00,
2013-08-13 15:10:00,66.6,47.9,29.90,NW,318,22.0,24.0,51,0.00,,---,0.01,VWS V14.00,2013-08-13 19:10:00,
2013-08-13 15:11:00,66.3,47.1,29.90,North,10,0.0,24.0,50,0.00,,---,0.01,VWS V14.00,2013-08-13 19:11:00,
2013-08-13 15:12:00,65.8,48.7,29.90,WNW,298,7.0,24.0,54,0.00,,---,0.01,VWS V14.00,2013-08-13 19:12:00,
2013-08-13 15:15:00,65.2,47.7,29.90,North,349,0.0,24.0,53,0.00,,---,0.01,VWS V14.00,2013-08-13 19:15:00,
2013-08-13 15:16:00,65.2,48.2,29.91,WNW,287,13.0,24.0,54,0.00,,---,0.01,VWS V14.00,2013-08-13 19:16:00,
2013-08-13 15:17:00,65.5,49.4,29.91,WNW,296,4.0,24.0,56,0.00,,---,0.01,VWS V14.00,2013-08-13 19:17:00,
2013-08-13 15:20:00,66.0,47.9,29.91,NNW,335,7.0,24.0,52,0.00,,---,0.01,VWS V14.00,2013-08-13 19:20:00,
2013-08-13 15:21:00,66.0,49.4,29.91,NW,318,4.0,24.0,55,0.00,,---,0.01,VWS V14.00,2013-08-13 19:21:00,
2013-08-13 15:22:00,66.0,48.9,29.91,North,354,0.0,24.0,54,0.00,,---,0.01,VWS V14.00,2013-08-13 19:22:00,
2013-08-13 15:25:00,66.6,50.0,29.91,WNW,299,9.0,24.0,55,0.00,,---,0.01,VWS V14.00,2013-08-13 19:25:00,
2013-08-13 15:26:00,66.6,50.0,29.91,WNW,294,8.0,24.0,55,0.00,,---,0.01,VWS V14.00,2013-08-13 19:26:00,
2013-08-13 15:27:00,66.6,50.0,29.91,NW,325,2.0,24.0,55,0.00,,---,0.01,VWS V14.00,2013-08-13 19:27:00,
2013-08-13 15:30:00,66.1,48.0,29.90,North,0,6.0,24.0,52,0.00,,---,0.01,VWS V14.00,2013-08-13 19:30:00,
2013-08-13 15:31:00,66.1,48.0,29.90,West,278,10.0,24.0,52,0.00,,---,0.01,VWS V14.00,2013-08-13 19:31:00,
2013-08-13 15:32:00,65.8,48.7,29.90,NW,319,14.0,24.0,54,0.00,,---,0.01,VWS V14.00,2013-08-13 19:32:00,
2013-08-13 15:33:00,65.8,49.2,29.90,WNW,302,17.0,24.0,55,0.00,,---,0.01,VWS V14.00,2013-08-13 19:33:00,
2013-08-13 15:35:00,65.6,47.5,29.90,West,278,11.0,24.0,52,0.00,,---,0.01,VWS V14.00,2013-08-13 19:35:00,
2013-08-13 15:36:00,65.8,47.7,29.90,NNW,333,6.0,24.0,52,0.00,,---,0.01,VWS V14.00,2013-08-13 19:36:00,
2013-08-13 15:37:00,65.6,48.5,29.90,NNW,330,9.0,24.0,54,0.00,,---,0.01,VWS V14.00,2013-08-13 19:37:00,
2013-08-13 15:38:00,65.6,47.5,29.90,NNW,333,1.0,24.0,52,0.00,,---,0.01,VWS V14.00,2013-08-13 19:38:00,
2013-08-13 15:40:00,66.3,49.2,29.90,NW,323,11.0,24.0,54,0.00,,---,0.01,VWS V14.00,2013-08-13 19:40:00,
2013-08-13 15:41:00,66.3,48.2,29.90,WNW,287,10.0,24.0,52,0.00,,---,0.01,VWS V14.00,2013-08-13 19:41:00,
2013-08-13 15:42:00,66.1,48.0,29.90,North,0,0.0,24.0,52,0.00,,---,0.01,VWS V14.00,2013-08-13 19:42:00,
2013-08-13 15:43:00,66.1,48.5,29.90,West,272,15.0,24.0,53,0.00,,---,0.01,VWS V14.00,2013-08-13 19:43:00,
2013-08-13 15:46:00,65.8,48.2,29.90,NNE,27,8.0,24.0,53,0.00,,---,0.01,VWS V14.00,2013-08-13 19:46:00,
2013-08-13 15:47:00,65.6,48.5,29.90,NNW,342,4.0,24.0,54,0.00,,---,0.01,VWS V14.00,2013-08-13 19:47:00,
2013-08-13 15:48:00,65.5,47.9,29.90,North,6,1.0,24.0,53,0.00,,---,0.01,VWS V14.00,2013-08-13 19:48:00,
2013-08-13 15:51:00,65.2,47.7,29.90,North,353,10.0,24.0,53,0.00,,---,0.01,VWS V14.00,2013-08-13 19:51:00,
2013-08-13 15:52:00,65.0,47.0,29.90,NNW,329,9.0,24.0,52,0.00,,---,0.01,VWS V14.00,2013-08-13 19:52:00,
2013-08-13 15:53:00,64.8,46.8,29.90,NW,325,13.0,24.0,52,0.00,,---,0.01,VWS V14.00,2013-08-13 19:53:00,
2013-08-13 15:56:00,65.0,47.5,29.90,North,10,7.0,24.0,53,0.00,,---,0.01,VWS V14.00,2013-08-13 19:56:00,
2013-08-13 15:57:00,65.3,47.2,29.90,North,0,4.0,24.0,52,0.00,,---,0.01,VWS V14.00,2013-08-13 19:57:00,
2013-08-13 15:58:00,65.8,47.7,29.90,NNE,17,15.0,24.0,52,0.00,,---,0.01,VWS V14.00,2013-08-13 19:58:00,
2013-08-13 16:01:00,66.3,49.2,29.90,NE,34,8.0,13.0,54,0.00,,---,0.01,VWS V14.00,2013-08-13 20:01:00,
2013-08-13 16:02:00,66.1,48.0,29.90,NNE,13,4.0,13.0,52,0.00,,---,0.01,VWS V14.00,2013-08-13 20:02:00,
2013-08-13 16:03:00,66.0,47.4,29.90,NW,312,9.0,14.0,51,0.00,,---,0.01,VWS V14.00,2013-08-13 20:03:00,
2013-08-13 16:06:00,65.6,47.0,29.90,NNE,20,13.0,17.0,51,0.00,,---,0.01,VWS V14.00,2013-08-13 20:06:00,
2013-08-13 16:07:00,65.5,46.9,29.90,NNE,23,7.0,17.0,51,0.00,,---,0.01,VWS V14.00,2013-08-13 20:07:00,
2013-08-13 16:08:00,65.2,47.2,29.90,North,350,14.0,17.0,52,0.00,,---,0.01,VWS V14.00,2013-08-13 20:08:00,
2013-08-13 16:09:00,65.2,47.2,29.90,NNW,329,14.0,17.0,52,0.00,,---,0.01,VWS V14.00,2013-08-13 20:09:00,
2013-08-13 16:11:00,65.5,47.9,29.90,North,0,0.0,17.0,53,0.00,,---,0.01,VWS V14.00,2013-08-13 20:11:00,
2013-08-13 16:12:00,65.6,48.0,29.90,NW,323,16.0,17.0,53,0.00,,---,0.01,VWS V14.00,2013-08-13 20:12:00,
2013-08-13 16:14:00,66.0,47.4,29.90,North,3,11.0,17.0,51,0.00,,---,0.01,VWS V14.00,2013-08-13 20:14:00,
2013-08-13 16:16:00,66.0,47.9,29.90,WNW,289,6.0,17.0,52,0.00,,---,0.01,VWS V14.00,2013-08-13 20:16:00,
2013-08-13 16:17:00,66.0,48.4,29.90,NW,316,13.0,17.0,53,0.00,,---,0.01,VWS V14.00,2013-08-13 20:17:00,
2013-08-13 16:19:00,65.8,47.7,29.90,WNW,301,10.0,17.0,52,0.00,,---,0.01,VWS V14.00,2013-08-13 20:19:00,
2013-08-13 16:22:00,65.6,49.0,29.90,NW,322,6.0,17.0,55,0.00,,---,0.01,VWS V14.00,2013-08-13 20:22:00,
2013-08-13 16:23:00,66.0,48.4,29.90,NW,325,10.0,17.0,53,0.00,,---,0.01,VWS V14.00,2013-08-13 20:23:00,
2013-08-13 16:24:00,66.3,49.2,29.90,North,353,13.0,17.0,54,0.00,,---,0.01,VWS V14.00,2013-08-13 20:24:00,
2013-08-13 16:27:00,66.6,47.9,29.90,NNW,329,10.0,17.0,51,0.00,,---,0.01,VWS V14.00,2013-08-13 20:27:00,
2013-08-13 16:28:00,66.8,48.1,29.90,WNW,298,1.0,17.0,51,0.00,,---,0.01,VWS V14.00,2013-08-13 20:28:00,
2013-08-13 16:29:00,66.8,49.6,29.90,NNW,329,7.0,17.0,54,0.00,,---,0.01,VWS V14.00,2013-08-13 20:29:00,
2013-08-13 16:32:00,66.8,47.0,29.91,NW,326,14.0,18.0,49,0.00,,---,0.01,VWS V14.00,2013-08-13 20:32:00,
2013-08-13 16:33:00,66.6,46.3,29.91,NNW,329,11.0,20.0,48,0.00,,---,0.01,VWS V14.00,2013-08-13 20:33:00,
2013-08-13 16:34:00,66.4,46.1,29.91,North,354,10.0,20.0,48,0.00,,---,0.01,VWS V14.00,2013-08-13 20:34:00,
2013-08-13 16:37:00,66.1,47.5,29.91,NW,306,9.0,20.0,51,0.00,,---,0.01,VWS V14.00,2013-08-13 20:37:00,
2013-08-13 16:38:00,65.8,46.7,29.91,NW,322,13.0,20.0,50,0.00,,---,0.01,VWS V14.00,2013-08-13 20:38:00,
2013-08-13 16:39:00,65.6,47.5,29.91,NW,318,6.0,20.0,52,0.00,,---,0.01,VWS V14.00,2013-08-13 20:39:00,
2013-08-13 16:42:00,65.2,46.6,29.91,WNW,298,4.0,20.0,51,0.00,,---,0.01,VWS V14.00,2013-08-13 20:42:00,
2013-08-13 16:44:00,65.0,46.5,29.91,North,0,6.0,20.0,51,0.00,,---,0.01,VWS V14.00,2013-08-13 20:44:00,
2013-08-13 16:47:00,64.8,46.8,29.91,NNW,342,8.0,20.0,52,0.00,,---,0.01,VWS V14.00,2013-08-13 20:47:00,
2013-08-13 16:48:00,65.0,47.0,29.91,North,350,2.0,20.0,52,0.00,,---,0.01,VWS V14.00,2013-08-13 20:48:00,
2013-08-13 16:49:00,65.5,47.4,29.91,NNE,17,4.0,20.0,52,0.00,,---,0.01,VWS V14.00,2013-08-13 20:49:00,
2013-08-13 16:52:00,66.1,47.5,29.91,NNW,329,7.0,20.0,51,0.00,,---,0.01,VWS V14.00,2013-08-13 20:52:00,
2013-08-13 16:53:00,66.3,48.2,29.91,NNW,330,0.0,20.0,52,0.00,,---,0.01,VWS V14.00,2013-08-13 20:53:00,
2013-08-13 16:54:00,66.6,48.4,29.91,NNW,329,10.0,20.0,52,0.00,,---,0.01,VWS V14.00,2013-08-13 20:54:00,
2013-08-13 16:55:00,66.6,49.0,29.91,NNW,329,9.0,20.0,53,0.00,,---,0.01,VWS V14.00,2013-08-13 20:55:00,
2013-08-13 16:58:00,66.9,48.7,29.91,North,0,0.0,20.0,52,0.00,,---,0.01,VWS V14.00,2013-08-13 20:58:00,
2013-08-13 16:59:00,67.3,50.1,29.91,NNW,329,7.0,20.0,54,0.00,,---,0.01,VWS V14.00,2013-08-13 20:59:00,
2013-08-13 17:00:00,67.3,50.1,29.91,NW,325,8.0,20.0,54,0.00,,---,0.01,VWS V14.00,2013-08-13 21:00:00,
2013-08-13 17:03:00,67.4,47.6,29.90,NNW,337,4.0,11.0,49,0.00,,---,0.01,VWS V14.00,2013-08-13 21:03:00,
2013-08-13 17:04:00,67.4,47.6,29.90,North,357,2.0,15.0,49,0.00,,---,0.01,VWS V14.00,2013-08-13 21:04:00,
2013-08-13 17:05:00,67.6,47.8,29.90,WNW,301,0.0,15.0,49,0.00,,---,0.01,VWS V14.00,2013-08-13 21:05:00,
2013-08-13 17:08:00,67.8,49.5,29.90,North,354,6.0,20.0,52,0.00,,---,0.01,VWS V14.00,2013-08-13 21:08:00,
2013-08-13 17:09:00,67.6,47.2,29.90,NW,312,7.0,20.0,48,0.00,,---,0.01,VWS V14.00,2013-08-13 21:09:00,
2013-08-13 17:10:00,67.6,49.4,29.90,West,281,6.0,20.0,52,0.00,,---,0.01,VWS V14.00,2013-08-13 21:10:00,
2013-08-13 17:13:00,66.4,48.3,29.90,NW,323,2.0,20.0,52,0.00,,---,0.01,VWS V14.00,2013-08-13 21:13:00,
2013-08-13 17:15:00,66.3,48.7,29.90,NNW,344,2.0,20.0,53,0.00,,---,0.01,VWS V14.00,2013-08-13 21:15:00,
2013-08-13 17:18:00,65.8,47.2,29.91,WNW,285,14.0,20.0,51,0.00,,---,0.01,VWS V14.00,2013-08-13 21:18:00,
2013-08-13 17:19:00,66.0,48.9,29.91,NNW,329,4.0,20.0,54,0.00,,---,0.01,VWS V14.00,2013-08-13 21:19:00,
2013-08-13 17:20:00,66.3,48.7,29.91,NNW,332,9.0,20.0,53,0.00,,---,0.01,VWS V14.00,2013-08-13 21:20:00,
2013-08-13 17:21:00,66.3,49.7,29.91,North,10,4.0,20.0,55,0.00,,---,0.01,VWS V14.00,2013-08-13 21:21:00,
2013-08-13 17:23:00,66.4,47.2,29.91,WNW,291,4.0,20.0,50,0.00,,---,0.01,VWS V14.00,2013-08-13 21:23:00,
2013-08-13 17:24:00,66.6,47.4,29.91,North,10,11.0,20.0,50,0.00,,---,0.01,VWS V14.00,2013-08-13 21:24:00,
2013-08-13 17:25:00,66.4,48.3,29.91,WNW,295,10.0,20.0,52,0.00,,---,0.01,VWS V14.00,2013-08-13 21:25:00,
2013-08-13 17:26:00,66.4,48.8,29.91,WNW,295,11.0,20.0,53,0.00,,---,0.01,VWS V14.00,2013-08-13 21:26:00,
2013-08-13 17:28:00,66.8,48.1,29.91,NE,44,1.0,20.0,51,0.00,,---,0.01,VWS V14.00,2013-08-13 21:28:00,
2013-08-13 17:29:00,66.8,48.1,29.91,North,349,10.0,20.0,51,0.00,,---,0.01,VWS V14.00,2013-08-13 21:29:00,
2013-08-13 17:31:00,66.9,47.1,29.90,NW,315,11.0,20.0,49,0.00,,---,0.01,VWS V14.00,2013-08-13 21:31:00,
2013-08-13 17:33:00,67.3,47.0,29.90,NNE,27,9.0,20.0,48,0.00,,---,0.01,VWS V14.00,2013-08-13 21:33:00,
2013-08-13 17:35:00,67.3,47.0,29.90,NE,37,11.0,20.0,48,0.00,,---,0.01,VWS V14.00,2013-08-13 21:35:00,
2013-08-13 17:36:00,67.3,47.0,29.90,NNW,340,9.0,20.0,48,0.00,,---,0.01,VWS V14.00,2013-08-13 21:36:00,
2013-08-13 17:39:00,67.6,48.3,29.90,NNW,335,8.0,20.0,50,0.00,,---,0.01,VWS V14.00,2013-08-13 21:39:00,
2013-08-13 17:40:00,67.9,49.1,29.90,NW,313,4.0,20.0,51,0.00,,---,0.01,VWS V14.00,2013-08-13 21:40:00,
2013-08-13 17:41:00,68.4,48.5,29.90,WNW,285,8.0,20.0,49,0.00,,---,0.01,VWS V14.00,2013-08-13 21:41:00,
2013-08-13 17:44:00,68.4,51.1,29.90,NW,304,10.0,20.0,54,0.00,,---,0.01,VWS V14.00,2013-08-13 21:44:00,
2013-08-13 17:45:00,68.4,49.6,29.90,WNW,291,11.0,20.0,51,0.00,,---,0.01,VWS V14.00,2013-08-13 21:45:00,
2013-08-13 17:46:00,68.4,49.6,29.91,WNW,291,14.0,20.0,51,0.00,,---,0.01,VWS V14.00,2013-08-13 21:46:00,
2013-08-13 17:49:00,68.6,48.2,29.91,NW,312,0.0,20.0,48,0.00,,---,0.01,VWS V14.00,2013-08-13 21:49:00,
2013-08-13 17:50:00,68.6,48.2,29.91,North,3,0.0,20.0,48,0.00,,---,0.01,VWS V14.00,2013-08-13 21:50:00,
2013-08-13 17:51:00,68.4,49.6,29.91,WNW,288,15.0,20.0,51,0.00,,---,0.01,VWS V14.00,2013-08-13 21:51:00,
2013-08-13 17:54:00,67.6,47.2,29.91,NW,313,4.0,20.0,48,0.00,,---,0.01,VWS V14.00,2013-08-13 21:54:00,
2013-08-13 17:55:00,67.3,48.0,29.91,West,281,10.0,20.0,50,0.00,,---,0.01,VWS V14.00,2013-08-13 21:55:00,
2013-08-13 17:56:00,66.9,47.7,29.91,North,3,8.0,20.0,50,0.00,,---,0.01,VWS V14.00,2013-08-13 21:56:00,
2013-08-13 17:57:00,66.8,49.1,29.91,NW,315,6.0,20.0,53,0.00,,---,0.01,VWS V14.00,2013-08-13 21:57:00,
2013-08-13 17:59:00,66.3,48.7,29.91,NW,311,0.0,20.0,53,0.00,,---,0.01,VWS V14.00,2013-08-13 21:59:00,
2013-08-13 18:00:00,66.3,48.2,29.90,North,0,9.0,20.0,52,0.00,,---,0.01,VWS V14.00,2013-08-13 22:00:00,
2013-08-13 18:01:00,66.1,48.0,29.90,North,357,4.0,8.0,52,0.00,,---,0.01,VWS V14.00,2013-08-13 22:01:00,
2013-08-13 18:02:00,66.1,48.0,29.90,North,353,0.0,8.0,52,0.00,,---,0.01,VWS V14.00,2013-08-13 22:02:00,
2013-08-13 18:04:00,66.3,48.2,29.90,NNE,20,4.0,9.0,52,0.00,,---,0.01,VWS V14.00,2013-08-13 22:04:00,
2013-08-13 18:05:00,66.4,48.3,29.90,North,0,0.0,9.0,52,0.00,,---,0.01,VWS V14.00,2013-08-13 22:05:00,
2013-08-13 18:07:00,66.8,49.1,29.90,NNW,344,1.0,10.0,53,0.00,,---,0.01,VWS V14.00,2013-08-13 22:07:00,
2013-08-13 18:09:00,67.1,49.9,29.90,NNW,342,8.0,13.0,54,0.00,,---,0.01,VWS V14.00,2013-08-13 22:09:00,
2013-08-13 18:10:00,67.1,47.3,29.90,NNW,337,1.0,15.0,49,0.00,,---,0.01,VWS V14.00,2013-08-13 22:10:00,
2013-08-13 18:12:00,67.1,47.3,29.90,North,353,0.0,15.0,49,0.00,,---,0.01,VWS V14.00,2013-08-13 22:12:00,
2013-08-13 18:14:00,67.4,49.7,29.90,NNW,336,0.0,15.0,53,0.00,,---,0.01,VWS V14.00,2013-08-13 22:14:00,
2013-08-13 18:15:00,67.3,48.6,29.90,NNE,20,2.0,15.0,51,0.00,,---,0.01,VWS V14.00,2013-08-13 22:15:00,
2013-08-13 18:17:00,67.4,48.7,29.90,NE,34,7.0,15.0,51,0.00,,---,0.01,VWS V14.00,2013-08-13 22:17:00,
2013-08-13 18:19:00,67.3,47.5,29.90,NW,326,10.0,15.0,49,0.00,,---,0.01,VWS V14.00,2013-08-13 22:19:00,
2013-08-13 18:21:00,67.1,47.3,29.90,NW,318,2.0,15.0,49,0.00,,---,0.01,VWS V14.00,2013-08-13 22:21:00,
2013-08-13 18:22:00,67.1,47.9,29.90,NNW,332,2.0,15.0,50,0.00,,---,0.01,VWS V14.00,2013-08-13 22:22:00,
2013-08-13 18:24:00,66.8,48.1,29.90,North,350,0.0,15.0,51,0.00,,---,0.01,VWS V14.00,2013-08-13 22:24:00,
2013-08-13 18:26:00,66.3,47.7,29.90,North,357,1.0,15.0,51,0.00,,---,0.01,VWS V14.00,2013-08-13 22:26:00,
2013-08-13 18:27:00,66.3,48.7,29.90,North,0,0.0,15.0,53,0.00,,---,0.01,VWS V14.00,2013-08-13 22:27:00,
2013-08-13 18:28:00,66.1,48.5,29.90,North,0,0.0,15.0,53,0.00,,---,0.01,VWS V14.00,2013-08-13 22:28:00,
2013-08-13 18:29:00,65.6,48.5,29.90,North,0,0.0,15.0,54,0.00,,---,0.01,VWS V14.00,2013-08-13 22:29:00,
2013-08-13 18:32:00,65.5,47.4,29.91,NNW,336,8.0,15.0,52,0.00,,---,0.01,VWS V14.00,2013-08-13 22:32:00,
2013-08-13 18:33:00,65.3,47.2,29.91,NNW,329,0.0,15.0,52,0.00,,---,0.01,VWS V14.00,2013-08-13 22:33:00,
2013-08-13 18:35:00,65.2,47.2,29.91,North,0,9.0,15.0,52,0.00,,---,0.01,VWS V14.00,2013-08-13 22:35:00,
2013-08-13 18:37:00,65.0,47.0,29.91,NW,311,8.0,15.0,52,0.00,,---,0.01,VWS V14.00,2013-08-13 22:37:00,
2013-08-13 18:38:00,65.0,47.5,29.91,NNE,17,0.0,15.0,53,0.00,,---,0.01,VWS V14.00,2013-08-13 22:38:00,
2013-08-13 18:40:00,64.8,47.3,29.91,North,10,1.0,15.0,53,0.00,,---,0.01,VWS V14.00,2013-08-13 22:40:00,
2013-08-13 18:42:00,64.7,47.2,29.91,NNW,342,4.0,15.0,53,0.00,,---,0.01,VWS V14.00,2013-08-13 22:42:00,
2013-08-13 18:43:00,64.7,47.2,29.91,NW,326,0.0,15.0,53,0.00,,---,0.01,VWS V14.00,2013-08-13 22:43:00,
2013-08-13 18:45:00,64.7,47.7,29.91,North,3,0.0,15.0,54,0.00,,---,0.01,VWS V14.00,2013-08-13 22:45:00,
2013-08-13 18:47:00,64.7,48.2,29.90,NW,308,4.0,15.0,55,0.00,,---,0.01,VWS V14.00,2013-08-13 22:47:00,
2013-08-13 18:48:00,64.7,48.7,29.90,WNW,298,2.0,15.0,56,0.00,,---,0.01,VWS V14.00,2013-08-13 22:48:00,
2013-08-13 18:50:00,64.5,47.5,29.90,WNW,299,4.0,16.0,54,0.00,,---,0.01,VWS V14.00,2013-08-13 22:50:00,
2013-08-13 18:52:00,64.5,47.5,29.90,North,0,0.0,16.0,54,0.00,,---,0.01,VWS V14.00,2013-08-13 22:52:00,
2013-08-13 18:53:00,64.5,47.5,29.90,North,0,0.0,16.0,54,0.00,,---,0.01,VWS V14.00,2013-08-13 22:53:00,
2013-08-13 18:55:00,64.7,48.7,29.90,WNW,302,7.0,16.0,56,0.00,,---,0.01,VWS V14.00,2013-08-13 22:55:00,
2013-08-13 18:57:00,64.8,48.3,29.90,North,0,2.0,16.0,55,0.00,,---,0.01,VWS V14.00,2013-08-13 22:57:00,
2013-08-13 18:58:00,64.8,47.8,29.90,NNE,20,7.0,16.0,54,0.00,,---,0.01,VWS V14.00,2013-08-13 22:58:00,
2013-08-13 19:00:00,64.7,47.2,29.90,NW,306,7.0,16.0,53,0.00,,---,0.01,VWS V14.00,2013-08-13 23:00:00,
2013-08-13 19:02:00,64.5,47.0,29.90,NW,311,2.0,8.0,53,0.00,,---,0.01,VWS V14.00,2013-08-13 23:02:00,
2013-08-13 19:03:00,64.5,47.0,29.90,North,0,0.0,8.0,53,0.00,,---,0.01,VWS V14.00,2013-08-13 23:03:00,
2013-08-13 19:05:00,64.3,47.3,29.90,North,356,2.0,10.0,54,0.00,,---,0.01,VWS V14.00,2013-08-13 23:05:00,
2013-08-13 19:08:00,64.3,47.3,29.90,NW,326,1.0,13.0,54,0.00,,---,0.01,VWS V14.00,2013-08-13 23:08:00,
2013-08-13 19:09:00,64.3,47.8,29.90,WNW,296,4.0,13.0,55,0.00,,---,0.01,VWS V14.00,2013-08-13 23:09:00,
2013-08-13 19:10:00,64.2,47.2,29.90,NNW,329,2.0,13.0,54,0.00,,---,0.01,VWS V14.00,2013-08-13 23:10:00,
2013-08-13 19:13:00,64.2,47.2,29.90,NW,313,10.0,13.0,54,0.00,,---,0.01,VWS V14.00,2013-08-13 23:13:00,
2013-08-13 19:14:00,64.2,46.7,29.90,NNW,337,1.0,13.0,53,0.00,,---,0.01,VWS V14.00,2013-08-13 23:14:00,
2013-08-13 19:15:00,64.2,46.7,29.91,NW,318,0.0,13.0,53,0.00,,---,0.01,VWS V14.00,2013-08-13 23:15:00,
2013-08-13 19:18:00,64.2,47.2,29.91,North,0,7.0,13.0,54,0.00,,---,0.01,VWS V14.00,2013-08-13 23:18:00,
2013-08-13 19:19:00,64.2,47.2,29.91,NW,326,6.0,13.0,54,0.00,,---,0.01,VWS V14.00,2013-08-13 23:19:00,
2013-08-13 19:20:00,64.3,47.3,29.91,North,353,1.0,13.0,54,0.00,,---,0.01,VWS V14.00,2013-08-13 23:20:00,
2013-08-13 19:23:00,64.8,48.3,29.91,NW,309,0.0,13.0,55,0.00,,---,0.01,VWS V14.00,2013-08-13 23:23:00,
2013-08-13 19:24:00,64.8,47.3,29.91,NW,313,4.0,13.0,53,0.00,,---,0.01,VWS V14.00,2013-08-13 23:24:00,
2013-08-13 19:25:00,65.0,47.0,29.91,NW,309,8.0,13.0,52,0.00,,---,0.01,VWS V14.00,2013-08-13 23:25:00,
2013-08-13 19:28:00,65.2,48.6,29.91,NW,320,0.0,13.0,55,0.00,,---,0.01,VWS V14.00,2013-08-13 23:28:00,
2013-08-13 19:29:00,65.2,48.2,29.91,North,357,2.0,13.0,54,0.00,,---,0.01,VWS V14.00,2013-08-13 23:29:00,
2013-08-13 19:30:00,65.2,47.7,29.91,West,270,0.0,13.0,53,0.00,,---,0.01,VWS V14.00,2013-08-13 23:30:00,
2013-08-13 19:33:00,65.2,47.7,29.91,NW,320,8.0,16.0,53,0.00,,---,0.01,VWS V14.00,2013-08-13 23:33:00,
2013-08-13 19:34:00,65.2,47.7,29.91,NW,316,4.0,16.0,53,0.00,,---,0.01,VWS V14.00,2013-08-13 23:34:00,
2013-08-13 19:35:00,65.2,47.2,29.91,NW,306,15.0,16.0,52,0.00,,---,0.01,VWS V14.00,2013-08-13 23:35:00,
2013-08-13 19:38:00,65.2,47.7,29.91,WNW,291,2.0,16.0,53,0.00,,---,0.01,VWS V14.00,2013-08-13 23:38:00,
2013-08-13 19:39:00,65.0,47.5,29.91,NW,309,13.0,16.0,53,0.00,,---,0.01,VWS V14.00,2013-08-13 23:39:00,
2013-08-13 19:41:00,65.0,47.0,29.91,NNW,332,0.0,16.0,52,0.00,,---,0.01,VWS V14.00,2013-08-13 23:41:00,
2013-08-13 19:43:00,65.0,47.5,29.91,North,0,6.0,16.0,53,0.00,,---,0.01,VWS V14.00,2013-08-13 23:43:00,
2013-08-13 19:44:00,64.8,47.3,29.91,North,356,7.0,16.0,53,0.00,,---,0.01,VWS V14.00,2013-08-13 23:44:00,
2013-08-13 19:46:00,64.7,47.2,29.91,NNW,330,2.0,16.0,53,0.00,,---,0.01,VWS V14.00,2013-08-13 23:46:00,
2013-08-13 19:48:00,64.5,47.5,29.91,NNE,20,0.0,16.0,54,0.00,,---,0.01,VWS V14.00,2013-08-13 23:48:00,
2013-08-13 19:49:00,64.3,47.3,29.91,NNE,20,9.0,16.0,54,0.00,,---,0.01,VWS V14.00,2013-08-13 23:49:00,
2013-08-13 19:50:00,64.3,47.3,29.91,West,277,6.0,16.0,54,0.00,,---,0.01,VWS V14.00,2013-08-13 23:50:00,
2013-08-13 19:51:00,64.2,47.2,29.91,North,0,1.0,16.0,54,0.00,,---,0.01,VWS V14.00,2013-08-13 23:51:00,
2013-08-13 19:54:00,63.9,47.4,29.91,WNW,296,7.0,16.0,55,0.00,,---,0.01,VWS V14.00,2013-08-13 23:54:00,
2013-08-13 19:55:00,63.9,47.4,29.91,NW,308,8.0,16.0,55,0.00,,---,0.01,VWS V14.00,2013-08-13 23:55:00,
2013-08-13 19:56:00,63.7,47.2,29.91,NW,308,7.0,16.0,55,0.00,,---,0.01,VWS V14.00,2013-08-13 23:56:00,
2013-08-13 19:59:00,63.5,47.5,29.91,NNW,339,4.0,16.0,56,0.00,,---,0.01,VWS V14.00,2013-08-13 23:59:00,
2013-08-13 20:00:00,63.5,48.0,29.91,NW,320,4.0,16.0,57,0.00,,---,0.01,VWS V14.00,2013-08-14 00:00:00,
2013-08-13 20:01:00,63.4,47.5,29.92,WNW,295,2.0,7.0,56,0.00,,---,0.01,VWS V14.00,2013-08-14 00:01:00,
2013-08-13 20:04:00,63.2,48.2,29.92,NW,326,6.0,9.0,58,0.00,,---,0.01,VWS V14.00,2013-08-14 00:04:00,
2013-08-13 20:05:00,63.2,47.7,29.92,WNW,294,2.0,9.0,57,0.00,,---,0.01,VWS V14.00,2013-08-14 00:05:00,
2013-08-13 20:06:00,63.1,48.1,29.92,NW,305,6.0,9.0,58,0.00,,---,0.01,VWS V14.00,2013-08-14 00:06:00,
2013-08-13 20:09:00,62.9,47.5,29.92,North,349,0.0,14.0,57,0.00,,---,0.01,VWS V14.00,2013-08-14 00:09:00,
2013-08-13 20:10:00,62.9,47.0,29.92,NW,312,14.0,14.0,56,0.00,,---,0.01,VWS V14.00,2013-08-14 00:10:00,
2013-08-13 20:12:00,62.9,47.0,29.92,WNW,288,1.0,16.0,56,0.00,,---,0.01,VWS V14.00,2013-08-14 00:12:00,
2013-08-13 20:14:00,62.7,47.3,29.92,WNW,294,7.0,16.0,57,0.00,,---,0.01,VWS V14.00,2013-08-14 00:14:00,
2013-08-13 20:15:00,62.7,47.3,29.92,NW,306,2.0,16.0,57,0.00,,---,0.01,VWS V14.00,2013-08-14 00:15:00,
2013-08-13 20:16:00,62.6,47.2,29.92,NNW,329,0.0,16.0,57,0.00,,---,0.01,VWS V14.00,2013-08-14 00:16:00,
2013-08-13 20:17:00,62.6,47.2,29.92,West,272,7.0,16.0,57,0.00,,---,0.01,VWS V14.00,2013-08-14 00:17:00,
2013-08-13 20:19:00,62.6,47.2,29.92,WNW,296,0.0,16.0,57,0.00,,---,0.01,VWS V14.00,2013-08-14 00:19:00,
2013-08-13 20:20:00,62.6,47.2,29.92,NW,309,4.0,16.0,57,0.00,,---,0.01,VWS V14.00,2013-08-14 00:20:00,
2013-08-13 20:21:00,62.4,47.0,29.92,WNW,301,7.0,16.0,57,0.00,,---,0.01,VWS V14.00,2013-08-14 00:21:00,
2013-08-13 20:22:00,62.4,47.5,29.92,WNW,298,4.0,16.0,58,0.00,,---,0.01,VWS V14.00,2013-08-14 00:22:00,
2013-08-13 20:24:00,62.3,47.3,29.92,NW,304,4.0,16.0,58,0.00,,---,0.01,VWS V14.00,2013-08-14 00:24:00,
2013-08-13 20:25:00,62.3,47.3,29.92,WNW,301,0.0,16.0,58,0.00,,---,0.01,VWS V14.00,2013-08-14 00:25:00,
2013-08-13 20:26:00,62.3,47.3,29.92,NW,305,0.0,16.0,58,0.00,,---,0.01,VWS V14.00,2013-08-14 00:26:00,
2013-08-13 20:27:00,62.1,47.2,29.92,NNW,330,4.0,16.0,58,0.00,,---,0.01,VWS V14.00,2013-08-14 00:27:00,
2013-08-13 20:30:00,62.1,47.6,29.92,NNW,347,0.0,16.0,59,0.00,,---,0.01,VWS V14.00,2013-08-14 00:30:00,
2013-08-13 20:31:00,62.0,47.5,29.92,NW,326,10.0,16.0,59,0.00,,---,0.01,VWS V14.00,2013-08-14 00:31:00,
2013-08-13 20:32:00,62.0,47.1,29.92,North,353,0.0,16.0,58,0.00,,---,0.01,VWS V14.00,2013-08-14 00:32:00,
2013-08-13 20:35:00,62.0,47.1,29.92,NNW,329,0.0,16.0,58,0.00,,---,0.01,VWS V14.00,2013-08-14 00:35:00,
2013-08-13 20:36:00,61.8,46.9,29.92,NW,326,7.0,16.0,58,0.00,,---,0.01,VWS V14.00,2013-08-14 00:36:00,
2013-08-13 20:37:00,61.8,46.9,29.92,NNW,333,0.0,16.0,58,0.00,,---,0.01,VWS V14.00,2013-08-14 00:37:00,
2013-08-13 20:40:00,61.6,46.7,29.92,NNW,342,0.0,16.0,58,0.00,,---,0.01,VWS V14.00,2013-08-14 00:40:00,
2013-08-13 20:41:00,61.6,46.7,29.92,WNW,302,0.0,16.0,58,0.00,,---,0.01,VWS V14.00,2013-08-14 00:41:00,
2013-08-13 20:42:00,61.5,46.6,29.92,NW,316,4.0,16.0,58,0.00,,---,0.01,VWS V14.00,2013-08-14 00:42:00,
2013-08-13 20:45:00,61.3,47.3,29.92,NW,316,0.0,16.0,60,0.00,,---,0.01,VWS V14.00,2013-08-14 00:45:00,
2013-08-13 20:46:00,61.2,46.8,29.92,NW,305,2.0,16.0,59,0.00,,---,0.01,VWS V14.00,2013-08-14 00:46:00,
2013-08-13 20:47:00,61.0,47.0,29.92,NW,313,7.0,16.0,60,0.00,,---,0.01,VWS V14.00,2013-08-14 00:47:00,
2013-08-13 20:50:00,60.9,46.9,29.92,NNW,347,0.0,16.0,60,0.00,,---,0.01,VWS V14.00,2013-08-14 00:50:00,
2013-08-13 20:51:00,60.7,47.2,29.92,NW,320,2.0,16.0,61,0.00,,---,0.01,VWS V14.00,2013-08-14 00:51:00,
2013-08-13 20:52:00,60.7,47.2,29.92,NW,322,2.0,16.0,61,0.00,,---,0.01,VWS V14.00,2013-08-14 00:52:00,
2013-08-13 20:55:00,60.5,47.0,29.92,NNW,337,2.0,16.0,61,0.00,,---,0.01,VWS V14.00,2013-08-14 00:55:00,
2013-08-13 20:56:00,60.4,46.9,29.92,NNW,332,1.0,16.0,61,0.00,,---,0.01,VWS V14.00,2013-08-14 00:56:00,
2013-08-13 20:57:00,60.4,46.9,29.92,NNW,332,2.0,16.0,61,0.00,,---,0.01,VWS V14.00,2013-08-14 00:57:00,
2013-08-13 21:00:00,60.1,47.0,29.93,NW,323,0.0,16.0,62,0.00,,---,0.01,VWS V14.00,2013-08-14 01:00:00,
2013-08-13 21:01:00,59.9,46.9,29.93,NW,323,0.0,16.0,62,0.00,,---,0.01,VWS V14.00,2013-08-14 01:01:00,
2013-08-13 21:02:00,59.9,46.9,29.93,NNW,330,0.0,0.0,62,0.00,,---,0.01,VWS V14.00,2013-08-14 01:02:00,
2013-08-13 21:03:00,59.9,46.9,29.93,NW,325,0.0,0.0,62,0.00,,---,0.01,VWS V14.00,2013-08-14 01:03:00,
2013-08-13 21:05:00,59.6,47.4,29.93,NW,325,0.0,0.0,64,0.00,,---,0.01,VWS V14.00,2013-08-14 01:05:00,
2013-08-13 21:06:00,59.5,47.3,29.93,NW,325,0.0,0.0,64,0.00,,---,0.01,VWS V14.00,2013-08-14 01:06:00,
2013-08-13 21:07:00,59.3,47.1,29.93,NW,322,0.0,0.0,64,0.00,,---,0.01,VWS V14.00,2013-08-14 01:07:00,
2013-08-13 21:08:00,59.3,47.1,29.93,NW,322,0.0,0.0,64,0.00,,---,0.01,VWS V14.00,2013-08-14 01:08:00,
2013-08-13 21:10:00,59.0,47.3,29.93,NW,322,0.0,0.0,65,0.00,,---,0.01,VWS V14.00,2013-08-14 01:10:00,
2013-08-13 21:11:00,59.0,47.3,29.93,NW,322,0.0,0.0,65,0.00,,---,0.01,VWS V14.00,2013-08-14 01:11:00,
2013-08-13 21:12:00,59.0,46.8,29.93,NW,322,0.0,0.0,64,0.00,,---,0.01,VWS V14.00,2013-08-14 01:12:00,
2013-08-13 21:13:00,58.9,47.2,29.93,NW,311,1.0,4.0,65,0.00,,---,0.01,VWS V14.00,2013-08-14 01:13:00,
2013-08-13 21:15:00,58.7,47.4,29.93,NW,311,0.0,4.0,66,0.00,,---,0.01,VWS V14.00,2013-08-14 01:15:00,
2013-08-13 21:16:00,58.6,47.3,29.93,NW,311,0.0,4.0,66,0.00,,---,0.01,VWS V14.00,2013-08-14 01:16:00,
2013-08-13 21:17:00,58.6,47.3,29.93,NW,311,0.0,4.0,66,0.00,,---,0.01,VWS V14.00,2013-08-14 01:17:00,
2013-08-13 21:18:00,58.6,47.3,29.93,NW,311,0.0,4.0,66,0.00,,---,0.01,VWS V14.00,2013-08-14 01:18:00,
2013-08-13 21:20:00,58.3,47.4,29.93,NW,311,0.0,4.0,67,0.00,,---,0.01,VWS V14.00,2013-08-14 01:20:00,
2013-08-13 21:21:00,58.3,47.4,29.93,NW,311,0.0,4.0,67,0.00,,---,0.01,VWS V14.00,2013-08-14 01:21:00,
2013-08-13 21:22:00,58.1,47.2,29.93,SSW,210,0.0,4.0,67,0.00,,---,0.01,VWS V14.00,2013-08-14 01:22:00,
2013-08-13 21:23:00,58.1,47.6,29.93,SSW,210,0.0,4.0,68,0.00,,---,0.01,VWS V14.00,2013-08-14 01:23:00,
2013-08-13 21:26:00,58.0,47.5,29.93,WNW,282,0.0,4.0,68,0.00,,---,0.01,VWS V14.00,2013-08-14 01:26:00,
2013-08-13 21:27:00,57.8,47.3,29.93,NW,305,4.0,4.0,68,0.00,,---,0.01,VWS V14.00,2013-08-14 01:27:00,
2013-08-13 21:28:00,57.8,47.3,29.93,NW,305,1.0,4.0,68,0.00,,---,0.01,VWS V14.00,2013-08-14 01:28:00,
2013-08-13 21:31:00,57.8,46.9,29.94,NW,311,0.0,4.0,67,0.00,,---,0.01,VWS V14.00,2013-08-14 01:31:00,
2013-08-13 21:32:00,58.0,47.5,29.94,NW,311,0.0,4.0,68,0.00,,---,0.01,VWS V14.00,2013-08-14 01:32:00,
2013-08-13 21:33:00,57.8,47.3,29.94,NW,312,0.0,4.0,68,0.00,,---,0.01,VWS V14.00,2013-08-14 01:33:00,
2013-08-13 21:36:00,57.6,47.1,29.94,NW,312,0.0,4.0,68,0.00,,---,0.01,VWS V14.00,2013-08-14 01:36:00,
2013-08-13 21:37:00,57.6,47.1,29.94,NW,311,0.0,4.0,68,0.00,,---,0.01,VWS V14.00,2013-08-14 01:37:00,
2013-08-13 21:38:00,57.5,47.4,29.94,NW,311,0.0,4.0,69,0.00,,---,0.01,VWS V14.00,2013-08-14 01:38:00,
2013-08-13 21:41:00,57.2,47.5,29.94,NW,312,0.0,4.0,70,0.00,,---,0.01,VWS V14.00,2013-08-14 01:41:00,
2013-08-13 21:42:00,57.0,47.3,29.94,NW,312,0.0,4.0,70,0.00,,---,0.01,VWS V14.00,2013-08-14 01:42:00,
2013-08-13 21:43:00,57.0,47.3,29.94,NW,311,0.0,4.0,70,0.00,,---,0.01,VWS V14.00,2013-08-14 01:43:00,
2013-08-13 21:44:00,56.9,47.6,29.94,NW,312,0.0,4.0,71,0.00,,---,0.01,VWS V14.00,2013-08-14 01:44:00,
2013-08-13 21:46:00,56.7,47.4,29.94,NW,311,0.0,4.0,71,0.00,,---,0.01,VWS V14.00,2013-08-14 01:46:00,
2013-08-13 21:47:00,56.7,47.8,29.94,NW,311,0.0,4.0,72,0.00,,---,0.01,VWS V14.00,2013-08-14 01:47:00,
2013-08-13 21:48:00,56.7,47.8,29.94,NW,311,0.0,4.0,72,0.00,,---,0.01,VWS V14.00,2013-08-14 01:48:00,
2013-08-13 21:49:00,56.6,47.7,29.94,NW,312,0.0,4.0,72,0.00,,---,0.01,VWS V14.00,2013-08-14 01:49:00,
2013-08-13 21:51:00,56.5,47.6,29.94,NW,311,0.0,4.0,72,0.00,,---,0.01,VWS V14.00,2013-08-14 01:51:00,
2013-08-13 21:52:00,56.5,47.6,29.94,NNW,329,0.0,4.0,72,0.00,,---,0.01,VWS V14.00,2013-08-14 01:52:00,
2013-08-13 21:53:00,56.5,47.6,29.94,NNW,329,0.0,4.0,72,0.00,,---,0.01,VWS V14.00,2013-08-14 01:53:00,
2013-08-13 21:54:00,56.5,47.6,29.94,NNW,329,0.0,4.0,72,0.00,,---,0.01,VWS V14.00,2013-08-14 01:54:00,
2013-08-13 21:56:00,56.5,47.2,29.94,NNW,329,0.0,4.0,71,0.00,,---,0.01,VWS V14.00,2013-08-14 01:56:00,
2013-08-13 21:57:00,56.5,46.8,29.94,NNW,329,0.0,4.0,70,0.00,,---,0.01,VWS V14.00,2013-08-14 01:57:00,
2013-08-13 21:58:00,56.5,46.8,29.94,NNW,330,0.0,4.0,70,0.00,,---,0.01,VWS V14.00,2013-08-14 01:58:00,
2013-08-13 21:59:00,56.6,46.9,29.94,NNW,329,0.0,4.0,70,0.00,,---,0.01,VWS V14.00,2013-08-14 01:59:00,
2013-08-13 22:01:00,56.6,46.9,29.95,NW,322,0.0,0.0,70,0.00,,---,0.01,VWS V14.00,2013-08-14 02:01:00,
2013-08-13 22:02:00,56.6,46.9,29.95,NW,322,0.0,0.0,70,0.00,,---,0.01,VWS V14.00,2013-08-14 02:02:00,
2013-08-13 22:03:00,56.6,46.6,29.95,NW,322,0.0,0.0,69,0.00,,---,0.01,VWS V14.00,2013-08-14 02:03:00,
2013-08-13 22:04:00,56.6,46.9,29.95,NW,322,0.0,0.0,70,0.00,,---,0.01,VWS V14.00,2013-08-14 02:04:00,
2013-08-13 22:07:00,56.5,46.8,29.95,NW,320,0.0,0.0,70,0.00,,---,0.01,VWS V14.00,2013-08-14 02:07:00,
2013-08-13 22:08:00,56.5,46.8,29.95,NW,322,0.0,0.0,70,0.00,,---,0.01,VWS V14.00,2013-08-14 02:08:00,
2013-08-13 22:09:00,56.5,46.8,29.95,NW,322,0.0,0.0,70,0.00,,---,0.01,VWS V14.00,2013-08-14 02:09:00,
2013-08-13 22:12:00,56.5,46.5,29.95,NW,323,0.0,0.0,69,0.00,,---,0.01,VWS V14.00,2013-08-14 02:12:00,
2013-08-13 22:13:00,56.5,46.5,29.95,NW,323,0.0,0.0,69,0.00,,---,0.01,VWS V14.00,2013-08-14 02:13:00,
2013-08-13 22:14:00,56.5,46.5,29.95,NW,323,0.0,0.0,69,0.00,,---,0.01,VWS V14.00,2013-08-14 02:14:00,
2013-08-13 22:17:00,56.5,46.5,29.95,NW,319,0.0,0.0,69,0.00,,---,0.01,VWS V14.00,2013-08-14 02:17:00,
2013-08-13 22:19:00,56.5,46.5,29.95,NNW,329,0.0,0.0,69,0.00,,---,0.01,VWS V14.00,2013-08-14 02:19:00,
2013-08-13 22:20:00,56.5,46.1,29.95,NNW,335,0.0,0.0,68,0.00,,---,0.01,VWS V14.00,2013-08-14 02:20:00,
2013-08-13 22:22:00,56.6,45.8,29.95,NNW,332,1.0,6.0,67,0.00,,---,0.01,VWS V14.00,2013-08-14 02:22:00,
2013-08-13 22:23:00,56.6,45.8,29.95,NNW,347,0.0,6.0,67,0.00,,---,0.01,VWS V14.00,2013-08-14 02:23:00,
2013-08-13 22:24:00,56.7,45.9,29.95,NNW,336,4.0,6.0,67,0.00,,---,0.01,VWS V14.00,2013-08-14 02:24:00,
2013-08-13 22:25:00,56.7,45.9,29.95,North,10,2.0,13.0,67,0.00,,---,0.01,VWS V14.00,2013-08-14 02:25:00,
2013-08-13 22:27:00,56.9,45.7,29.95,NNW,329,2.0,13.0,66,0.00,,---,0.01,VWS V14.00,2013-08-14 02:27:00,
2013-08-13 22:28:00,56.9,45.7,29.95,NNW,332,7.0,13.0,66,0.00,,---,0.01,VWS V14.00,2013-08-14 02:28:00,
2013-08-13 22:29:00,56.9,45.7,29.95,NW,315,4.0,13.0,66,0.00,,---,0.01,VWS V14.00,2013-08-14 02:29:00,
2013-08-13 22:30:00,56.9,45.7,29.95,NNW,344,0.0,13.0,66,0.00,,---,0.01,VWS V14.00,2013-08-14 02:30:00,
2013-08-13 22:32:00,56.9,45.3,29.96,North,350,0.0,13.0,65,0.00,,---,0.01,VWS V14.00,2013-08-14 02:32:00,
2013-08-13 22:33:00,56.9,45.3,29.96,North,6,0.0,13.0,65,0.00,,---,0.01,VWS V14.00,2013-08-14 02:33:00,
2013-08-13 22:34:00,56.9,45.3,29.96,North,3,0.0,13.0,65,0.00,,---,0.01,VWS V14.00,2013-08-14 02:34:00,
2013-08-13 22:35:00,56.9,45.3,29.96,NW,325,1.0,13.0,65,0.00,,---,0.01,VWS V14.00,2013-08-14 02:35:00,
2013-08-13 22:37:00,56.9,45.3,29.96,NNE,20,2.0,13.0,65,0.00,,---,0.01,VWS V14.00,2013-08-14 02:37:00,
2013-08-13 22:38:00,56.7,45.1,29.96,NNE,20,0.0,13.0,65,0.00,,---,0.01,VWS V14.00,2013-08-14 02:38:00,
2013-08-13 22:39:00,56.7,45.1,29.96,North,357,0.0,13.0,65,0.00,,---,0.01,VWS V14.00,2013-08-14 02:39:00,
2013-08-13 22:40:00,56.7,45.1,29.96,North,356,2.0,13.0,65,0.00,,---,0.01,VWS V14.00,2013-08-14 02:40:00,
2013-08-13 22:42:00,56.7,45.1,29.96,North,354,0.0,13.0,65,0.00,,---,0.01,VWS V14.00,2013-08-14 02:42:00,
2013-08-13 22:43:00,56.7,45.1,29.96,North,353,0.0,13.0,65,0.00,,---,0.01,VWS V14.00,2013-08-14 02:43:00,
2013-08-13 22:44:00,56.7,45.1,29.96,North,353,0.0,13.0,65,0.00,,---,0.01,VWS V14.00,2013-08-14 02:44:00,
2013-08-13 22:45:00,56.7,45.1,29.96,NNW,347,0.0,13.0,65,0.00,,---,0.01,VWS V14.00,2013-08-14 02:45:00,
2013-08-13 22:47:00,56.5,45.3,29.96,North,350,1.0,13.0,66,0.00,,---,0.01,VWS V14.00,2013-08-14 02:47:00,
2013-08-13 22:48:00,56.5,45.3,29.96,North,357,0.0,13.0,66,0.00,,---,0.01,VWS V14.00,2013-08-14 02:48:00,
2013-08-13 22:49:00,56.5,45.3,29.96,North,357,0.0,13.0,66,0.00,,---,0.01,VWS V14.00,2013-08-14 02:49:00,
2013-08-13 22:50:00,56.5,45.3,29.96,North,7,0.0,13.0,66,0.00,,---,0.01,VWS V14.00,2013-08-14 02:50:00,
2013-08-13 22:53:00,56.5,44.9,29.96,North,0,2.0,13.0,65,0.00,,---,0.01,VWS V14.00,2013-08-14 02:53:00,
2013-08-13 22:54:00,56.5,44.9,29.96,North,0,0.0,13.0,65,0.00,,---,0.01,VWS V14.00,2013-08-14 02:54:00,
2013-08-13 22:55:00,56.5,44.9,29.96,North,0,6.0,13.0,65,0.00,,---,0.01,VWS V14.00,2013-08-14 02:55:00,
2013-08-13 22:58:00,56.5,44.9,29.96,North,0,0.0,13.0,65,0.00,,---,0.01,VWS V14.00,2013-08-14 02:58:00,
2013-08-13 22:59:00,56.5,44.9,29.96,North,353,2.0,13.0,65,0.00,,---,0.01,VWS V14.00,2013-08-14 02:59:00,
2013-08-13 23:00:00,56.5,44.9,29.96,North,354,0.0,13.0,65,0.00,,---,0.01,VWS V14.00,2013-08-14 03:00:00,
2013-08-13 23:03:00,56.5,44.9,29.96,NNW,343,0.0,7.0,65,0.00,,---,0.01,VWS V14.00,2013-08-14 03:03:00,
2013-08-13 23:04:00,56.3,44.7,29.96,NNW,344,0.0,7.0,65,0.00,,---,0.01,VWS V14.00,2013-08-14 03:04:00,
2013-08-13 23:05:00,56.3,44.7,29.96,North,353,4.0,7.0,65,0.00,,---,0.01,VWS V14.00,2013-08-14 03:05:00,
2013-08-13 23:08:00,56.2,44.6,29.96,NNW,335,2.0,7.0,65,0.00,,---,0.01,VWS V14.00,2013-08-14 03:08:00,
2013-08-13 23:09:00,56.2,44.6,29.96,NNE,13,1.0,7.0,65,0.00,,---,0.01,VWS V14.00,2013-08-14 03:09:00,
2013-08-13 23:10:00,56.2,44.6,29.96,North,357,0.0,7.0,65,0.00,,---,0.01,VWS V14.00,2013-08-14 03:10:00,
2013-08-13 23:13:00,56.2,44.6,29.96,North,0,0.0,9.0,65,0.00,,---,0.01,VWS V14.00,2013-08-14 03:13:00,
2013-08-13 23:14:00,56.2,44.6,29.96,North,0,0.0,9.0,65,0.00,,---,0.01,VWS V14.00,2013-08-14 03:14:00,
2013-08-13 23:15:00,56.2,44.6,29.96,NNW,347,0.0,9.0,65,0.00,,---,0.01,VWS V14.00,2013-08-14 03:15:00,
2013-08-13 23:18:00,56.0,44.8,29.96,North,7,0.0,9.0,66,0.00,,---,0.01,VWS V14.00,2013-08-14 03:18:00,
2013-08-13 23:19:00,56.0,44.8,29.96,NNW,337,0.0,9.0,66,0.00,,---,0.01,VWS V14.00,2013-08-14 03:19:00,
2013-08-13 23:20:00,56.0,44.8,29.96,NNE,13,0.0,9.0,66,0.00,,---,0.01,VWS V14.00,2013-08-14 03:20:00,
2013-08-13 23:21:00,56.0,44.8,29.96,North,10,1.0,9.0,66,0.00,,---,0.01,VWS V14.00,2013-08-14 03:21:00,
2013-08-13 23:24:00,55.9,44.7,29.96,North,0,0.0,9.0,66,0.00,,---,0.01,VWS V14.00,2013-08-14 03:24:00,
2013-08-13 23:25:00,55.9,44.7,29.96,North,349,0.0,9.0,66,0.00,,---,0.01,VWS V14.00,2013-08-14 03:25:00,
2013-08-13 23:26:00,55.9,44.7,29.96,NNW,333,1.0,9.0,66,0.00,,---,0.01,VWS V14.00,2013-08-14 03:26:00,
2013-08-13 23:29:00,55.7,44.9,29.96,NNE,16,1.0,9.0,67,0.00,,---,0.01,VWS V14.00,2013-08-14 03:29:00,
2013-08-13 23:30:00,55.7,44.9,29.96,NNW,337,1.0,9.0,67,0.00,,---,0.01,VWS V14.00,2013-08-14 03:30:00,
2013-08-13 23:31:00,55.7,44.5,29.96,North,0,0.0,9.0,66,0.00,,---,0.01,VWS V14.00,2013-08-14 03:31:00,
2013-08-13 23:34:00,55.7,44.9,29.96,North,357,0.0,9.0,67,0.00,,---,0.01,VWS V14.00,2013-08-14 03:34:00,
2013-08-13 23:35:00,55.6,44.8,29.96,North,356,0.0,9.0,67,0.00,,---,0.01,VWS V14.00,2013-08-14 03:35:00,
2013-08-13 23:36:00,55.6,44.8,29.96,North,357,6.0,9.0,67,0.00,,---,0.01,VWS V14.00,2013-08-14 03:36:00,
2013-08-13 23:39:00,55.6,44.8,29.96,NNW,339,4.0,9.0,67,0.00,,---,0.01,VWS V14.00,2013-08-14 03:39:00,
2013-08-13 23:40:00,55.6,44.8,29.96,NW,306,1.0,9.0,67,0.00,,---,0.01,VWS V14.00,2013-08-14 03:40:00,
2013-08-13 23:41:00,55.4,44.6,29.96,NNW,336,0.0,9.0,67,0.00,,---,0.01,VWS V14.00,2013-08-14 03:41:00,
2013-08-13 23:44:00,55.3,44.9,29.96,NW,320,6.0,9.0,68,0.00,,---,0.01,VWS V14.00,2013-08-14 03:44:00,
2013-08-13 23:45:00,55.3,44.9,29.97,NNW,336,0.0,9.0,68,0.00,,---,0.01,VWS V14.00,2013-08-14 03:45:00,
2013-08-13 23:46:00,55.1,45.1,29.97,NNW,337,1.0,9.0,69,0.00,,---,0.01,VWS V14.00,2013-08-14 03:46:00,
2013-08-13 23:49:00,55.0,45.0,29.97,NNW,339,2.0,9.0,69,0.00,,---,0.01,VWS V14.00,2013-08-14 03:49:00,
2013-08-13 23:50:00,55.0,45.0,29.97,NNW,329,6.0,9.0,69,0.00,,---,0.01,VWS V14.00,2013-08-14 03:50:00,
2013-08-13 23:51:00,54.8,44.8,29.97,NW,320,1.0,9.0,69,0.00,,---,0.01,VWS V14.00,2013-08-14 03:51:00,
2013-08-13 23:54:00,54.8,45.2,29.97,NNW,342,0.0,9.0,70,0.00,,---,0.01,VWS V14.00,2013-08-14 03:54:00,
2013-08-13 23:55:00,54.8,45.2,29.97,NNW,339,4.0,9.0,70,0.00,,---,0.01,VWS V14.00,2013-08-14 03:55:00,
2013-08-13 23:56:00,54.7,45.1,29.97,NNW,339,0.0,9.0,70,0.00,,---,0.01,VWS V14.00,2013-08-14 03:56:00,
2013-08-13 23:57:00,54.7,45.1,29.97,NNW,339,0.0,9.0,70,0.00,,---,0.01,VWS V14.00,2013-08-14 03:57:00,
2013-08-13 23:59:00,54.7,45.1,29.97,NNW,337,1.0,9.0,70,0.00,,---,0.01,VWS V14.00,2013-08-14 03:59:00,